CDC8987 ZSHC-HECA

Flight info

Callsign CDC8987
Flight time 11h 36m
Altitude 30100
Route NIVK8D/24 NIVIK W135 DOGVI W545 VEMEX W163 HFE B208 MAGLI/K0906S0980 B208 LAXAG W28 LAGEB W66 NUKTI B215 HAM/K0898S1040 B215 FKG A368 SARIN/K0895F340 N161 DERAD/K0878F360 N161 GASBI/N0482F360 N161 BEKIR L850 ADEKI N644 LAGAS/N0484F380 N61 NOLGA UN61 TBN UW706 SIV UT284 EVKIT/N0480F370 UB545 VESAR/N0481F380 DCT ODELO DCT STEPA/N0483F370 N71 LAKTO N307 MELDO A16 CVO
Aircraft A339/H-SADE1E2E3GHIJ3J5M1P2RWXY/LB2D1

Departure

Time 2026-05-04 15:03
Airport Hangzhou Xiaoshan International Airport (ZSHC)

Arrival

Time 2026-05-05 02:39
Airport Cairo International Airport (HECA)
Time Latitude Longitude Altitude Speed Heading
2026-05-04 14:20 30.23645 120.41944 37 ft 0 kts 99°
2026-05-04 14:41 30.23650 120.41911 37 ft 2 kts 99°
2026-05-04 14:42 30.23654 120.41876 37 ft 2 kts 103°
2026-05-04 14:42 30.23660 120.41859 37 ft 2 kts 121°
2026-05-04 14:42 30.23669 120.41846 37 ft 2 kts 134°
2026-05-04 14:43 30.23680 120.41834 37 ft 2 kts 149°
2026-05-04 14:43 30.23693 120.41827 37 ft 2 kts 154°
2026-05-04 14:43 30.23707 120.41819 37 ft 2 kts 152°
2026-05-04 14:43 30.23720 120.41811 37 ft 2 kts 152°
2026-05-04 14:44 30.23734 120.41803 37 ft 2 kts 152°
2026-05-04 14:44 30.23747 120.41795 37 ft 2 kts 152°
2026-05-04 14:44 30.23762 120.41786 37 ft 2 kts 152°
2026-05-04 14:44 30.23774 120.41779 37 ft 2 kts 152°
2026-05-04 14:45 30.23793 120.41767 37 ft 2 kts 152°
2026-05-04 14:45 30.23812 120.41758 37 ft 2 kts 176°
2026-05-04 14:45 30.23832 120.41761 37 ft 2 kts 204°
2026-05-04 14:45 30.23848 120.41775 37 ft 2 kts 232°
2026-05-04 14:46 30.23855 120.41789 37 ft 2 kts 246°
2026-05-04 14:46 30.23861 120.41805 37 ft 2 kts 243°
2026-05-04 14:46 30.23868 120.41821 37 ft 2 kts 242°
2026-05-04 14:46 30.23875 120.41836 37 ft 2 kts 243°
2026-05-04 14:47 30.23880 120.41846 37 ft 0 kts 243°
2026-05-04 14:47 30.23879 120.41846 37 ft 0 kts 243°
2026-05-04 14:49 30.23875 120.41836 37 ft 3 kts 243°
2026-05-04 14:50 30.23868 120.41795 37 ft 8 kts 286°
2026-05-04 14:50 30.23932 120.41760 37 ft 11 kts 21°
2026-05-04 14:50 30.23974 120.41837 37 ft 11 kts 63°
2026-05-04 14:50 30.24017 120.41935 37 ft 14 kts 63°
2026-05-04 14:51 30.24060 120.42033 37 ft 0 kts 63°
2026-05-04 14:52 30.24078 120.42072 37 ft 10 kts 62°
2026-05-04 14:52 30.24114 120.42153 37 ft 11 kts 63°
2026-05-04 14:52 30.24152 120.42239 37 ft 12 kts 63°
2026-05-04 14:52 30.24191 120.42328 37 ft 12 kts 63°
2026-05-04 14:53 30.24231 120.42419 37 ft 12 kts 63°
2026-05-04 14:53 30.24272 120.42512 37 ft 13 kts 63°
2026-05-04 14:53 30.24313 120.42606 37 ft 13 kts 63°
2026-05-04 14:53 30.24357 120.42703 37 ft 13 kts 62°
2026-05-04 14:54 30.24401 120.42801 37 ft 13 kts 63°
2026-05-04 14:54 30.24444 120.42901 37 ft 13 kts 63°
2026-05-04 14:54 30.24489 120.43001 37 ft 14 kts 62°
2026-05-04 14:54 30.24535 120.43104 37 ft 14 kts 63°
2026-05-04 14:55 30.24579 120.43204 37 ft 13 kts 63°
2026-05-04 14:55 30.24634 120.43275 37 ft 11 kts
2026-05-04 14:55 30.24688 120.43261 37 ft 3 kts
2026-05-04 14:55 30.24723 120.43302 37 ft 13 kts 59°
2026-05-04 14:56 30.24768 120.43404 37 ft 14 kts 63°
2026-05-04 14:56 30.24813 120.43507 37 ft 14 kts 63°
2026-05-04 14:56 30.24859 120.43612 37 ft 14 kts 63°
2026-05-04 14:56 30.24906 120.43717 37 ft 14 kts 62°
2026-05-04 14:57 30.24949 120.43815 37 ft 13 kts 63°
2026-05-04 14:57 30.24992 120.43913 37 ft 13 kts 63°
2026-05-04 14:57 30.25035 120.44010 37 ft 13 kts 60°
2026-05-04 14:57 30.25098 120.44028 37 ft 4 kts 325°
2026-05-04 14:58 30.25099 120.44026 37 ft 0 kts 326°
2026-05-04 14:58 30.25095 120.44030 37 ft 0 kts 330°
2026-05-04 14:58 30.25095 120.44029 37 ft 0 kts 330°
2026-05-04 15:01 30.25183 120.43975 37 ft 8 kts 320°
2026-05-04 15:01 30.25185 120.43910 37 ft 9 kts 247°
2026-05-04 15:01 30.25179 120.43895 37 ft 0 kts 243°
2026-05-04 15:02 30.25143 120.43814 37 ft 36 kts 243°
2026-05-04 15:02 30.24930 120.43336 37 ft 96 kts 243°
2026-05-04 15:02 30.24533 120.42445 37 ft 148 kts 243°
2026-05-04 15:02 30.23998 120.41236 85 ft 187 kts 241°
2026-05-04 15:03 30.23400 120.39891 603 ft 187 kts 240°
2026-05-04 15:03 30.22814 120.38586 1345 ft 179 kts 240°
2026-05-04 15:03 30.22253 120.37334 1951 ft 174 kts 239°
2026-05-04 15:03 30.21676 120.36056 2193 ft 185 kts 239°
2026-05-04 15:04 30.21060 120.34695 2424 ft 197 kts 240°
2026-05-04 15:04 30.20417 120.33260 2654 ft 209 kts 240°
2026-05-04 15:04 30.19731 120.31724 2925 ft 221 kts 241°
2026-05-04 15:04 30.19002 120.30093 3181 ft 235 kts 241°
2026-05-04 15:05 30.18228 120.28357 3443 ft 249 kts 241°
2026-05-04 15:05 30.17408 120.26518 3742 ft 263 kts 242°
2026-05-04 15:05 30.16560 120.24619 4220 ft 268 kts 242°
2026-05-04 15:05 30.15718 120.22715 4701 ft 270 kts 245°
2026-05-04 15:06 30.15319 120.20609 4924 ft 272 kts 275°
2026-05-04 15:06 30.15885 120.18552 4931 ft 271 kts 303°
2026-05-04 15:06 30.17220 120.17039 4917 ft 272 kts 329°
2026-05-04 15:07 30.20644 120.14964 5682 ft 279 kts 332°
2026-05-04 15:07 30.22331 120.13926 6325 ft 277 kts 332°
2026-05-04 15:07 30.24034 120.12864 6936 ft 276 kts 332°
2026-05-04 15:07 30.25728 120.11802 7479 ft 277 kts 332°
2026-05-04 15:08 30.27431 120.10731 7827 ft 279 kts 332°
2026-05-04 15:08 30.29129 120.09662 7891 ft 279 kts 332°
2026-05-04 15:08 30.30825 120.08592 7895 ft 279 kts 332°
2026-05-04 15:08 30.32532 120.07514 7905 ft 279 kts 331°
2026-05-04 15:09 30.34255 120.06426 7901 ft 279 kts 331°
2026-05-04 15:09 30.35948 120.05353 7898 ft 278 kts 332°
2026-05-04 15:09 30.37659 120.04269 7899 ft 278 kts 332°
2026-05-04 15:10 30.41046 120.02125 7895 ft 278 kts 332°
2026-05-04 15:10 30.42755 120.01045 8098 ft 283 kts 332°
2026-05-04 15:10 30.46211 119.98858 9258 ft 281 kts 332°
2026-05-04 15:11 30.47931 119.97770 9753 ft 282 kts 332°
2026-05-04 15:11 30.49652 119.96681 10226 ft 285 kts 331°
2026-05-04 15:11 30.51437 119.95553 10468 ft 296 kts 331°
2026-05-04 15:11 30.53269 119.94392 10684 ft 308 kts 331°
2026-05-04 15:12 30.55185 119.93176 10895 ft 320 kts 331°
2026-05-04 15:12 30.57162 119.91921 11104 ft 332 kts 331°
2026-05-04 15:12 30.59238 119.90602 11309 ft 343 kts 331°
2026-05-04 15:12 30.61364 119.89254 11511 ft 355 kts 332°
2026-05-04 15:13 30.63723 119.88244 11714 ft 367 kts 349°
2026-05-04 15:13 30.66265 119.88163 12123 ft 374 kts
2026-05-04 15:13 30.68831 119.88853 12606 ft 378 kts 13°
2026-05-04 15:13 30.71370 119.89644 13024 ft 382 kts 13°
2026-05-04 15:14 30.73962 119.90352 13431 ft 384 kts
2026-05-04 15:14 30.76619 119.90105 13840 ft 382 kts 342°
2026-05-04 15:14 30.79008 119.88795 14341 ft 379 kts 323°
2026-05-04 15:14 30.81098 119.86955 14815 ft 381 kts 321°
2026-05-04 15:15 30.83250 119.85082 15240 ft 385 kts 322°
2026-05-04 15:15 30.85376 119.83246 15688 ft 387 kts 322°
2026-05-04 15:15 30.87558 119.81369 16158 ft 389 kts 321°
2026-05-04 15:16 30.91920 119.77613 17060 ft 394 kts 321°
2026-05-04 15:16 30.94121 119.75717 17506 ft 396 kts 321°
2026-05-04 15:16 30.98593 119.71861 18387 ft 400 kts 321°
2026-05-04 15:17 31.00811 119.69949 18822 ft 402 kts 321°
2026-05-04 15:17 31.05352 119.66029 19645 ft 407 kts 321°
2026-05-04 15:17 31.07616 119.64072 20059 ft 409 kts 321°
2026-05-04 15:18 31.09909 119.62089 20462 ft 410 kts 321°
2026-05-04 15:18 31.12184 119.60120 20843 ft 412 kts 321°
2026-05-04 15:18 31.14496 119.58116 21228 ft 414 kts 320°
2026-05-04 15:19 31.19157 119.54076 21923 ft 419 kts 320°
2026-05-04 15:19 31.21497 119.52047 22286 ft 421 kts 320°
2026-05-04 15:19 31.26228 119.47946 22973 ft 424 kts 320°
2026-05-04 15:20 31.28598 119.45889 23302 ft 426 kts 320°
2026-05-04 15:20 31.30959 119.43839 23627 ft 427 kts 320°
2026-05-04 15:20 31.33374 119.41740 23949 ft 429 kts 320°
2026-05-04 15:20 31.35773 119.39652 24261 ft 431 kts 320°
2026-05-04 15:21 31.38171 119.37566 24555 ft 432 kts 320°
2026-05-04 15:21 31.40582 119.35465 24859 ft 434 kts 320°
2026-05-04 15:21 31.45453 119.31212 25402 ft 438 kts 319°
2026-05-04 15:22 31.47900 119.29074 25691 ft 440 kts 319°
2026-05-04 15:22 31.50344 119.26936 25986 ft 441 kts 319°
2026-05-04 15:22 31.55255 119.22629 26525 ft 444 kts 319°
2026-05-04 15:23 31.57713 119.20466 26797 ft 445 kts 319°
2026-05-04 15:23 31.60200 119.18259 27051 ft 446 kts 319°
2026-05-04 15:23 31.62677 119.16059 27295 ft 448 kts 319°
2026-05-04 15:23 31.65113 119.13779 27536 ft 448 kts 316°
2026-05-04 15:24 31.69811 119.08984 27968 ft 451 kts 315°
2026-05-04 15:24 31.74546 119.04133 28409 ft 454 kts 315°
2026-05-04 15:25 31.76930 119.01690 28608 ft 456 kts 315°
2026-05-04 15:25 31.79206 118.99114 28787 ft 454 kts 308°
2026-05-04 15:25 31.81104 118.96169 28958 ft 453 kts 300°
2026-05-04 15:26 31.83603 118.89445 29383 ft 450 kts 283°
2026-05-04 15:26 31.84146 118.85826 29608 ft 448 kts 274°
2026-05-04 15:26 31.83906 118.78548 30044 ft 448 kts 264°
2026-05-04 15:27 31.83585 118.74894 30146 ft 449 kts 264°
2026-05-04 15:27 31.82933 118.67640 30151 ft 449 kts 264°
2026-05-04 15:28 31.81939 118.56686 30155 ft 449 kts 264°
2026-05-04 15:29 31.80938 118.45770 30154 ft 449 kts 264°
2026-05-04 15:30 31.79302 118.20296 30147 ft 451 kts 268°
2026-05-04 15:31 31.79083 118.09283 30144 ft 450 kts 268°
2026-05-04 15:32 31.78778 117.90969 30147 ft 451 kts 269°
2026-05-04 15:34 31.78448 117.72566 30147 ft 452 kts 269°
2026-05-04 15:34 31.78240 117.61488 30145 ft 452 kts 269°
2026-05-04 15:35 31.78024 117.50465 30138 ft 452 kts 269°
2026-05-04 15:36 31.77798 117.39385 30146 ft 454 kts 269°
2026-05-04 15:36 31.78583 117.32050 30133 ft 455 kts 285°
2026-05-04 15:37 31.81244 117.25337 30131 ft 459 kts 301°
2026-05-04 15:37 31.85249 117.19480 30136 ft 459 kts 308°
2026-05-04 15:38 31.89360 117.13802 30136 ft 456 kts 308°
2026-05-04 15:38 31.93454 117.08132 30130 ft 454 kts 308°
2026-05-04 15:39 31.97532 117.02470 30133 ft 454 kts 308°
2026-05-04 15:40 32.03675 116.93955 30124 ft 453 kts 308°
2026-05-04 15:40 32.07726 116.88327 30130 ft 454 kts 308°
2026-05-04 15:41 32.11806 116.82649 30130 ft 455 kts 308°
2026-05-04 15:41 32.15894 116.76967 30120 ft 455 kts 308°
2026-05-04 15:42 32.19965 116.71272 30125 ft 455 kts 307°
2026-05-04 15:42 32.23922 116.65438 30120 ft 455 kts 307°
2026-05-04 15:43 32.27864 116.59583 30119 ft 455 kts 307°
2026-05-04 15:43 32.31817 116.53728 30118 ft 457 kts 307°
2026-05-04 15:44 32.35763 116.47883 30119 ft 458 kts 307°
2026-05-04 15:44 32.39800 116.42077 30116 ft 458 kts 309°
2026-05-04 15:45 32.43910 116.36287 30117 ft 457 kts 309°
2026-05-04 15:45 32.47959 116.30548 30114 ft 458 kts 308°
2026-05-04 15:46 32.52050 116.24728 30120 ft 458 kts 308°
2026-05-04 15:46 32.56104 116.18949 30115 ft 458 kts 308°
2026-05-04 15:47 32.60188 116.13156 30112 ft 458 kts 308°
2026-05-04 15:47 32.64253 116.07394 30111 ft 458 kts 308°
2026-05-04 15:48 32.68337 116.01589 30115 ft 458 kts 309°
2026-05-04 15:48 32.74454 115.92877 30105 ft 459 kts 309°
2026-05-04 15:49 32.78539 115.87045 30100 ft 460 kts 309°
2026-05-04 15:49 32.82618 115.81212 30104 ft 460 kts 308°
2026-05-04 15:50 32.86711 115.75346 30102 ft 460 kts 309°
2026-05-04 15:50 32.90854 115.69543 30094 ft 460 kts 310°
2026-05-04 15:51 32.95041 115.63883 30096 ft 459 kts 310°
2026-05-04 15:51 32.99257 115.58163 30097 ft 459 kts 310°
2026-05-04 15:52 33.03460 115.52434 30096 ft 459 kts 310°
2026-05-04 15:52 33.07639 115.46722 30096 ft 459 kts 310°
2026-05-04 15:53 33.11847 115.40961 30094 ft 460 kts 310°
2026-05-04 15:53 33.16007 115.35255 30095 ft 459 kts 310°
2026-05-04 15:54 33.20215 115.29473 30092 ft 459 kts 310°
2026-05-04 15:54 33.24365 115.23762 30087 ft 459 kts 310°
2026-05-04 15:55 33.28549 115.17997 30085 ft 458 kts 310°
2026-05-04 15:55 33.32704 115.12258 30082 ft 457 kts 310°
2026-05-04 15:56 33.36866 115.06501 30078 ft 457 kts 310°
2026-05-04 15:56 33.41031 115.00733 30077 ft 459 kts 310°
2026-05-04 15:57 33.45206 114.94940 30079 ft 459 kts 310°
2026-05-04 15:57 33.49340 114.89195 30078 ft 459 kts 310°
2026-05-04 15:58 33.53515 114.83380 30080 ft 459 kts 310°
2026-05-04 15:58 33.57660 114.77596 30079 ft 459 kts 310°
2026-05-04 15:59 33.61846 114.71761 30075 ft 459 kts 310°
2026-05-04 15:59 33.66175 114.66193 30077 ft 459 kts 315°
2026-05-04 16:00 33.70966 114.61123 30076 ft 459 kts 321°
2026-05-04 16:00 33.75963 114.56392 30072 ft 459 kts 321°
2026-05-04 16:01 33.80997 114.51656 30072 ft 460 kts 321°
2026-05-04 16:01 33.86011 114.46929 30071 ft 460 kts 321°
2026-05-04 16:02 33.91031 114.42189 30071 ft 460 kts 321°
2026-05-04 16:03 33.98570 114.35048 30069 ft 459 kts 322°
2026-05-04 16:03 34.03569 114.30302 30066 ft 458 kts 321°
2026-05-04 16:04 34.08580 114.25539 30062 ft 457 kts 321°
2026-05-04 16:04 34.16045 114.18426 30059 ft 457 kts 321°
2026-05-04 16:05 34.21011 114.13686 30059 ft 457 kts 321°
2026-05-04 16:06 34.28464 114.06555 30055 ft 456 kts 321°
2026-05-04 16:07 34.38412 113.97012 30065 ft 454 kts 321°
2026-05-04 16:08 34.48369 113.87653 30060 ft 454 kts 327°
2026-05-04 16:08 34.56882 113.82642 30057 ft 454 kts 341°
2026-05-04 16:09 34.62966 113.80547 30056 ft 454 kts 344°
2026-05-04 16:10 34.75138 113.76621 30050 ft 454 kts 344°
2026-05-04 16:11 34.87320 113.72514 30042 ft 453 kts 341°
2026-05-04 16:12 35.05064 113.64737 30038 ft 452 kts 340°
2026-05-04 16:13 35.16872 113.59515 30037 ft 452 kts 340°
2026-05-04 16:14 35.28724 113.54260 30031 ft 452 kts 340°
2026-05-04 16:16 35.43463 113.47694 30105 ft 451 kts 340°
2026-05-04 16:17 35.58201 113.41163 30152 ft 451 kts 340°
2026-05-04 16:18 35.69998 113.35915 30154 ft 451 kts 340°
2026-05-04 16:19 35.84712 113.29332 30154 ft 450 kts 339°
2026-05-04 16:20 35.99437 113.22778 30146 ft 450 kts 340°
2026-05-04 16:22 36.14155 113.16191 30131 ft 451 kts 340°
2026-05-04 16:23 36.32106 113.09145 30117 ft 452 kts 345°
2026-05-04 16:25 36.50300 113.03230 30098 ft 452 kts 345°
2026-05-04 16:26 36.71554 112.96268 30096 ft 450 kts 345°
2026-05-04 16:28 36.86694 112.91280 30113 ft 452 kts 345°
2026-05-04 16:29 37.07925 112.84255 30126 ft 450 kts 345°
2026-05-04 16:31 37.23043 112.79262 30135 ft 451 kts 345°
2026-05-04 16:32 37.41226 112.73220 30111 ft 451 kts 346°
2026-05-04 16:33 37.53330 112.69181 30086 ft 451 kts 346°
2026-05-04 16:34 37.62413 112.66139 30076 ft 451 kts 346°
2026-05-04 16:35 37.80715 112.60565 30045 ft 451 kts 350°
2026-05-04 16:36 37.89976 112.58381 30061 ft 452 kts 350°
2026-05-04 16:37 37.99253 112.56222 30079 ft 452 kts 350°
2026-05-04 16:38 38.11601 112.53334 30092 ft 452 kts 350°
2026-05-04 16:39 38.27034 112.49703 30109 ft 451 kts 350°
2026-05-04 16:40 38.39409 112.46778 30112 ft 452 kts 350°
2026-05-04 16:41 38.54813 112.43111 30124 ft 451 kts 349°
2026-05-04 16:43 38.70260 112.39391 30146 ft 452 kts 349°
2026-05-04 16:43 38.79503 112.37157 30163 ft 451 kts 350°
2026-05-04 16:45 38.98000 112.32669 30157 ft 452 kts 349°
2026-05-04 16:46 39.13461 112.28909 30140 ft 452 kts 349°
2026-05-04 16:47 39.25769 112.25899 30121 ft 451 kts 349°
2026-05-04 16:48 39.38109 112.22870 30113 ft 451 kts 348°
2026-05-04 16:49 39.50428 112.19837 30117 ft 451 kts 348°
2026-05-04 16:50 39.62734 112.16874 30121 ft 451 kts 348°
2026-05-04 16:51 39.71984 112.14636 30120 ft 451 kts 348°
2026-05-04 16:52 39.84321 112.11640 30112 ft 451 kts 348°
2026-05-04 16:53 39.93539 112.09390 30110 ft 451 kts 348°
2026-05-04 16:54 40.05856 112.06377 30094 ft 451 kts 348°
2026-05-04 16:55 40.24386 112.01812 30065 ft 452 kts 348°
2026-05-04 16:56 40.39798 111.98014 30079 ft 452 kts 348°
2026-05-04 16:57 40.49092 111.95942 30069 ft 453 kts 348°
2026-05-04 16:58 40.61544 111.93171 30047 ft 453 kts 347°
2026-05-04 17:00 40.79830 111.87112 29996 ft 452 kts 341°
2026-05-04 17:01 40.94883 111.81155 29994 ft 453 kts 341°
2026-05-04 17:02 41.06939 111.76372 30066 ft 453 kts 341°
2026-05-04 17:03 41.15974 111.72780 30077 ft 454 kts 341°
2026-05-04 17:03 41.25031 111.69166 30095 ft 454 kts 341°
2026-05-04 17:04 41.37094 111.64336 30075 ft 453 kts 340°
2026-05-04 17:05 41.49171 111.59481 30049 ft 454 kts 340°
2026-05-04 17:06 41.58232 111.55827 30037 ft 454 kts 340°
2026-05-04 17:07 41.66269 111.52577 30024 ft 455 kts 340°
2026-05-04 17:07 41.73326 111.49718 30014 ft 455 kts 340°
2026-05-04 17:08 41.82402 111.46028 29994 ft 455 kts 340°
2026-05-04 17:09 41.88448 111.43562 29988 ft 455 kts 340°
2026-05-04 17:09 41.94500 111.41091 29982 ft 455 kts 340°
2026-05-04 17:10 42.09626 111.34870 29947 ft 455 kts 337°
2026-05-04 17:11 42.12451 111.33030 29939 ft 449 kts 323°
2026-05-04 17:11 42.14825 111.30428 29937 ft 444 kts 312°
2026-05-04 17:11 42.18112 111.23439 29919 ft 443 kts 289°
2026-05-04 17:12 42.18856 111.19433 29918 ft 444 kts 278°
2026-05-04 17:12 42.18559 111.11126 29920 ft 447 kts 264°
2026-05-04 17:13 42.17239 110.98726 29907 ft 447 kts 264°
2026-05-04 17:14 42.15444 110.82250 29912 ft 446 kts 264°
2026-05-04 17:15 42.14079 110.69889 29913 ft 447 kts 264°
2026-05-04 17:16 42.12226 110.53323 29908 ft 449 kts 264°
2026-05-04 17:17 42.10350 110.36760 29924 ft 449 kts 264°
2026-05-04 17:18 42.08444 110.20158 29954 ft 450 kts 263°
2026-05-04 17:19 42.06511 110.03542 29956 ft 450 kts 263°
2026-05-04 17:19 42.05533 109.95204 30127 ft 456 kts 264°
2026-05-04 17:20 42.04546 109.86864 30724 ft 454 kts 264°
2026-05-04 17:20 42.03547 109.78467 31308 ft 453 kts 263°
2026-05-04 17:20 42.03052 109.74332 31576 ft 452 kts 264°
2026-05-04 17:21 42.02051 109.65997 31953 ft 452 kts 264°
2026-05-04 17:21 42.01054 109.57747 31961 ft 451 kts 264°
2026-05-04 17:22 42.00042 109.49423 31966 ft 450 kts 264°
2026-05-04 17:23 41.98013 109.32897 31968 ft 449 kts 263°
2026-05-04 17:24 41.96479 109.20531 31971 ft 450 kts 263°
2026-05-04 17:25 41.94411 109.04033 31982 ft 450 kts 263°
2026-05-04 17:26 41.92319 108.87558 31995 ft 450 kts 263°
2026-05-04 17:27 41.89675 108.67005 31983 ft 448 kts 263°
2026-05-04 17:28 41.87534 108.50578 31982 ft 448 kts 263°
2026-05-04 17:29 41.84277 108.25938 31963 ft 449 kts 262°
2026-05-04 17:31 41.81527 108.05455 31951 ft 448 kts 262°
2026-05-04 17:32 41.78742 107.85022 31963 ft 447 kts 262°
2026-05-04 17:33 41.76492 107.68691 31979 ft 448 kts 262°
2026-05-04 17:34 41.74219 107.52399 31963 ft 447 kts 262°
2026-05-04 17:35 41.71343 107.32014 31953 ft 448 kts 262°
2026-05-04 17:36 41.70182 107.23869 31952 ft 448 kts 262°
2026-05-04 17:36 41.69007 107.15659 31956 ft 447 kts 262°
2026-05-04 17:37 41.67833 107.07510 31944 ft 447 kts 262°
2026-05-04 17:37 41.66653 106.99361 31940 ft 448 kts 262°
2026-05-04 17:38 41.65472 106.91239 31935 ft 447 kts 262°
2026-05-04 17:38 41.64281 106.83092 31936 ft 447 kts 262°
2026-05-04 17:39 41.62492 106.70937 31931 ft 447 kts 262°
2026-05-04 17:39 41.61285 106.62802 31927 ft 447 kts 263°
2026-05-04 17:40 41.60074 106.54665 31930 ft 447 kts 263°
2026-05-04 17:40 41.58866 106.46580 31925 ft 448 kts 263°
2026-05-04 17:41 41.57637 106.38418 31921 ft 448 kts 263°
2026-05-04 17:41 41.56408 106.30280 31912 ft 449 kts 263°
2026-05-04 17:42 41.55170 106.22133 31908 ft 448 kts 263°
2026-05-04 17:42 41.53859 106.13978 31895 ft 450 kts 261°
2026-05-04 17:43 41.52046 106.05982 31882 ft 455 kts 256°
2026-05-04 17:43 41.49724 105.98083 31876 ft 458 kts 253°
2026-05-04 17:44 41.47374 105.90269 31876 ft 457 kts 254°
2026-05-04 17:44 41.45007 105.82437 31871 ft 456 kts 254°
2026-05-04 17:45 41.42623 105.74575 31873 ft 458 kts 254°
2026-05-04 17:45 41.40250 105.66768 31871 ft 458 kts 254°
2026-05-04 17:46 41.37839 105.58886 31870 ft 459 kts 254°
2026-05-04 17:46 41.35415 105.51080 31873 ft 458 kts 253°
2026-05-04 17:47 41.32984 105.43276 31884 ft 458 kts 254°
2026-05-04 17:47 41.30547 105.35460 31887 ft 458 kts 254°
2026-05-04 17:48 41.28106 105.27653 31895 ft 458 kts 253°
2026-05-04 17:48 41.25648 105.19813 31898 ft 458 kts 253°
2026-05-04 17:49 41.23206 105.12053 31907 ft 458 kts 253°
2026-05-04 17:49 41.20750 105.04262 31909 ft 458 kts 253°
2026-05-04 17:50 41.18293 104.96500 31908 ft 458 kts 253°
2026-05-04 17:50 41.15830 104.88734 31911 ft 457 kts 253°
2026-05-04 17:51 41.13366 104.80981 31917 ft 457 kts 253°
2026-05-04 17:51 41.10891 104.73229 31919 ft 457 kts 253°
2026-05-04 17:52 41.08472 104.65505 31921 ft 457 kts 255°
2026-05-04 17:52 41.06099 104.57662 31923 ft 458 kts 255°
2026-05-04 17:53 41.03731 104.49886 31931 ft 458 kts 255°
2026-05-04 17:53 41.01462 104.42068 31944 ft 454 kts 260°
2026-05-04 17:54 41.00327 104.33980 31943 ft 446 kts 271°
2026-05-04 17:54 41.00504 104.25852 31940 ft 439 kts 282°
2026-05-04 17:55 41.01926 104.18095 31934 ft 433 kts 293°
2026-05-04 17:55 41.04018 104.10679 31929 ft 432 kts 294°
2026-05-04 17:56 41.06146 104.03281 31921 ft 432 kts 294°
2026-05-04 17:56 41.08275 103.95869 31916 ft 432 kts 294°
2026-05-04 17:57 41.10391 103.88466 31919 ft 431 kts 294°
2026-05-04 17:57 41.12501 103.81059 31919 ft 429 kts 294°
2026-05-04 17:58 41.14605 103.73652 31921 ft 430 kts 294°
2026-05-04 17:58 41.16687 103.66303 31912 ft 429 kts 294°
2026-05-04 17:59 41.18775 103.58913 31906 ft 428 kts 294°
2026-05-04 18:00 41.21901 103.47813 31895 ft 428 kts 294°
2026-05-04 18:00 41.23965 103.40457 31892 ft 428 kts 293°
2026-05-04 18:01 41.26030 103.33064 31889 ft 428 kts 293°
2026-05-04 18:01 41.28103 103.25632 31907 ft 428 kts 293°
2026-05-04 18:02 41.31189 103.14514 31904 ft 427 kts 292°
2026-05-04 18:02 41.33231 103.07137 31907 ft 430 kts 292°
2026-05-04 18:03 41.35296 102.99639 31911 ft 432 kts 292°
2026-05-04 18:03 41.37418 102.92221 31890 ft 431 kts 293°
2026-05-04 18:04 41.39577 102.84764 31898 ft 432 kts 293°
2026-05-04 18:05 41.42794 102.73589 31885 ft 433 kts 292°
2026-05-04 18:05 41.44933 102.66142 31884 ft 432 kts 293°
2026-05-04 18:06 41.48155 102.54945 31877 ft 432 kts 293°
2026-05-04 18:06 41.50303 102.47450 31877 ft 432 kts 293°
2026-05-04 18:07 41.52440 102.39974 31866 ft 432 kts 293°
2026-05-04 18:07 41.54570 102.32483 31862 ft 432 kts 292°
2026-05-04 18:08 41.56340 102.26257 31862 ft 432 kts 292°
2026-05-04 18:08 41.58441 102.18835 31858 ft 431 kts 292°
2026-05-04 18:09 41.62657 102.03881 31840 ft 432 kts 292°
2026-05-04 18:10 41.64746 101.96435 31832 ft 430 kts 292°
2026-05-04 18:10 41.66836 101.88966 31822 ft 430 kts 292°
2026-05-04 18:11 41.68526 101.82913 31829 ft 428 kts 292°
2026-05-04 18:11 41.70004 101.77602 31832 ft 430 kts 291°
2026-05-04 18:12 41.71486 101.72263 31829 ft 428 kts 292°
2026-05-04 18:12 41.73125 101.66357 31826 ft 429 kts 292°
2026-05-04 18:13 41.75186 101.58904 31827 ft 429 kts 292°
2026-05-04 18:14 41.78277 101.47675 31827 ft 428 kts 291°
2026-05-04 18:14 41.80320 101.40220 31827 ft 427 kts 291°
2026-05-04 18:15 41.83870 101.25065 31828 ft 429 kts 284°
2026-05-04 18:16 41.84907 101.17188 31831 ft 431 kts 279°
2026-05-04 18:16 41.85404 101.09221 31826 ft 432 kts 275°
2026-05-04 18:17 41.85706 100.97342 31831 ft 433 kts 275°
2026-05-04 18:18 41.85987 100.85268 31835 ft 432 kts 275°
2026-05-04 18:18 41.86167 100.77216 31836 ft 433 kts 274°
2026-05-04 18:19 41.86422 100.65190 31838 ft 432 kts 275°
2026-05-04 18:19 41.86588 100.57141 31837 ft 432 kts 274°
2026-05-04 18:20 41.86747 100.49079 31842 ft 432 kts 274°
2026-05-04 18:20 41.86899 100.41065 31834 ft 431 kts 274°
2026-05-04 18:21 41.87045 100.33038 31845 ft 431 kts 274°
2026-05-04 18:21 41.87186 100.25042 31840 ft 432 kts 274°
2026-05-04 18:22 41.87324 100.16957 31991 ft 438 kts 273°
2026-05-04 18:22 41.87390 100.12885 32217 ft 438 kts 274°
2026-05-04 18:22 41.87454 100.08823 32511 ft 436 kts 274°
2026-05-04 18:23 41.87517 100.04758 32858 ft 432 kts 274°
2026-05-04 18:23 41.87578 100.00748 33214 ft 429 kts 273°
2026-05-04 18:23 41.87635 99.96815 33531 ft 426 kts 274°
2026-05-04 18:23 41.87693 99.92872 33787 ft 424 kts 274°
2026-05-04 18:24 41.87806 99.85028 33838 ft 420 kts 273°
2026-05-04 18:24 41.87911 99.77213 33850 ft 420 kts 274°
2026-05-04 18:25 41.88010 99.69408 33855 ft 420 kts 273°
2026-05-04 18:25 41.88104 99.61603 33869 ft 419 kts 273°
2026-05-04 18:26 41.88193 99.53859 33877 ft 419 kts 273°
2026-05-04 18:26 41.88278 99.46040 33882 ft 419 kts 273°
2026-05-04 18:27 41.88356 99.38226 33905 ft 420 kts 273°
2026-05-04 18:27 41.88428 99.30458 33926 ft 418 kts 272°
2026-05-04 18:28 41.88496 99.22659 33935 ft 419 kts 272°
2026-05-04 18:28 41.88558 99.14906 33948 ft 419 kts 272°
2026-05-04 18:29 41.88616 99.07111 33949 ft 418 kts 272°
2026-05-04 18:29 41.88666 98.99302 33958 ft 418 kts 272°
2026-05-04 18:30 41.88735 98.87683 33981 ft 418 kts 272°
2026-05-04 18:31 41.88774 98.79939 33988 ft 417 kts 272°
2026-05-04 18:31 41.88808 98.72172 33991 ft 417 kts 272°
2026-05-04 18:32 41.88837 98.64449 33992 ft 416 kts 272°
2026-05-04 18:32 41.88859 98.56700 34004 ft 416 kts 272°
2026-05-04 18:33 41.88876 98.49013 34018 ft 415 kts 272°
2026-05-04 18:33 41.88889 98.41312 34029 ft 414 kts 272°
2026-05-04 18:34 41.88898 98.33621 34033 ft 413 kts 271°
2026-05-04 18:34 41.88897 98.25926 34036 ft 412 kts 271°
2026-05-04 18:35 41.88895 98.18291 34038 ft 413 kts 271°
2026-05-04 18:35 41.88888 98.10594 34042 ft 413 kts 271°
2026-05-04 18:36 41.88874 98.02904 34044 ft 413 kts 271°
2026-05-04 18:36 41.88855 97.95235 34049 ft 413 kts 271°
2026-05-04 18:37 41.88834 97.87552 34039 ft 413 kts 271°
2026-05-04 18:37 41.88806 97.79908 34038 ft 413 kts 271°
2026-05-04 18:38 41.88770 97.72246 34045 ft 412 kts 271°
2026-05-04 18:38 41.88732 97.64556 34053 ft 413 kts 271°
2026-05-04 18:39 41.88688 97.56914 34060 ft 412 kts 271°
2026-05-04 18:39 41.88641 97.49231 34068 ft 412 kts 271°
2026-05-04 18:40 41.88586 97.41571 34082 ft 412 kts 270°
2026-05-04 18:40 41.88525 97.33890 34084 ft 413 kts 270°
2026-05-04 18:41 41.88462 97.26264 34086 ft 413 kts 270°
2026-05-04 18:41 41.88394 97.18597 34083 ft 413 kts 270°
2026-05-04 18:42 41.88319 97.10916 34079 ft 413 kts 270°
2026-05-04 18:42 41.88240 97.03192 34079 ft 414 kts 270°
2026-05-04 18:43 41.88156 96.95488 34082 ft 414 kts 270°
2026-05-04 18:43 41.88067 96.87818 34082 ft 413 kts 270°
2026-05-04 18:44 41.87973 96.80140 34088 ft 413 kts 270°
2026-05-04 18:44 41.87872 96.72485 34097 ft 413 kts 270°
2026-05-04 18:45 41.87767 96.64780 34105 ft 413 kts 269°
2026-05-04 18:45 41.87658 96.57119 34106 ft 413 kts 269°
2026-05-04 18:46 41.87540 96.49471 34119 ft 413 kts 270°
2026-05-04 18:46 41.87421 96.41769 34129 ft 412 kts 270°
2026-05-04 18:47 41.87297 96.34084 34140 ft 412 kts 269°
2026-05-04 18:47 41.87162 96.26426 34153 ft 413 kts 269°
2026-05-04 18:48 41.87083 96.18784 34153 ft 413 kts 270°
2026-05-04 18:48 41.87053 96.11109 34159 ft 414 kts 269°
2026-05-04 18:49 41.87011 96.03431 34165 ft 413 kts 269°
2026-05-04 18:49 41.86960 95.95732 34166 ft 414 kts 269°
2026-05-04 18:50 41.86904 95.88018 34156 ft 414 kts 269°
2026-05-04 18:50 41.86845 95.80364 34148 ft 414 kts 269°
2026-05-04 18:51 41.86781 95.72690 34141 ft 414 kts 269°
2026-05-04 18:51 41.86705 95.64964 34135 ft 415 kts 269°
2026-05-04 18:52 41.86630 95.57240 34123 ft 416 kts 268°
2026-05-04 18:52 41.86547 95.49502 34117 ft 417 kts 269°
2026-05-04 18:53 41.86456 95.41795 34114 ft 417 kts 269°
2026-05-04 18:53 41.86386 95.33982 34105 ft 418 kts 271°
2026-05-04 18:54 41.87111 95.26323 34103 ft 419 kts 280°
2026-05-04 18:54 41.88923 95.18874 34098 ft 423 kts 290°
2026-05-04 18:55 41.91790 95.11942 34085 ft 430 kts 299°
2026-05-04 18:55 41.97544 95.02618 34057 ft 435 kts 306°
2026-05-04 18:56 42.01534 94.96506 34036 ft 436 kts 305°
2026-05-04 18:56 42.05524 94.90382 34022 ft 436 kts 305°
2026-05-04 18:57 42.09519 94.84251 34012 ft 437 kts 306°
2026-05-04 18:57 42.13499 94.78132 33996 ft 436 kts 306°
2026-05-04 18:58 42.17461 94.72021 33999 ft 436 kts 306°
2026-05-04 18:58 42.21438 94.65881 33982 ft 437 kts 306°
2026-05-04 18:59 42.25432 94.59699 33981 ft 437 kts 306°
2026-05-04 18:59 42.29394 94.53555 33987 ft 437 kts 306°
2026-05-04 19:00 42.33375 94.47368 33991 ft 437 kts 306°
2026-05-04 19:00 42.37347 94.41177 33974 ft 437 kts 306°
2026-05-04 19:01 42.41332 94.34963 33974 ft 437 kts 305°
2026-05-04 19:01 42.45285 94.28780 33979 ft 437 kts 305°
2026-05-04 19:02 42.49247 94.22567 33982 ft 437 kts 305°
2026-05-04 19:02 42.53215 94.16334 33979 ft 437 kts 305°
2026-05-04 19:03 42.57165 94.10113 33991 ft 437 kts 305°
2026-05-04 19:03 42.61127 94.03865 33974 ft 438 kts 305°
2026-05-04 19:04 42.65077 93.97620 33983 ft 439 kts 305°
2026-05-04 19:04 42.69046 93.91328 33997 ft 440 kts 305°
2026-05-04 19:05 42.73032 93.84995 33988 ft 441 kts 305°
2026-05-04 19:05 42.77007 93.78667 33983 ft 440 kts 305°
2026-05-04 19:06 42.80696 93.72125 33985 ft 436 kts 300°
2026-05-04 19:06 42.83847 93.65179 33987 ft 432 kts 295°
2026-05-04 19:07 42.86466 93.57852 33980 ft 431 kts 289°
2026-05-04 19:07 42.88550 93.50256 33969 ft 428 kts 286°
2026-05-04 19:08 42.90475 93.42574 33940 ft 428 kts 286°
2026-05-04 19:08 42.92372 93.34941 33952 ft 429 kts 285°
2026-05-04 19:09 42.94278 93.27248 33928 ft 429 kts 285°
2026-05-04 19:09 42.96183 93.19523 33935 ft 429 kts 285°
2026-05-04 19:10 42.98078 93.11812 33910 ft 432 kts 285°
2026-05-04 19:10 42.99981 93.04038 33918 ft 431 kts 285°
2026-05-04 19:11 43.01860 92.96336 33898 ft 433 kts 285°
2026-05-04 19:11 43.03763 92.88510 33896 ft 432 kts 285°
2026-05-04 19:12 43.06576 92.76901 33894 ft 432 kts 285°
2026-05-04 19:13 43.08458 92.69099 33929 ft 433 kts 285°
2026-05-04 19:13 43.10331 92.61307 33918 ft 434 kts 285°
2026-05-04 19:14 43.12208 92.53465 33917 ft 433 kts 285°
2026-05-04 19:14 43.14074 92.45646 33923 ft 434 kts 285°
2026-05-04 19:15 43.15942 92.37807 33939 ft 435 kts 285°
2026-05-04 19:15 43.17796 92.29977 33947 ft 436 kts 284°
2026-05-04 19:16 43.19657 92.22095 33946 ft 436 kts 285°
2026-05-04 19:16 43.21510 92.14220 33945 ft 436 kts 285°
2026-05-04 19:17 43.23370 92.06296 33935 ft 436 kts 284°
2026-05-04 19:17 43.25214 91.98412 33970 ft 438 kts 284°
2026-05-04 19:18 43.27065 91.90453 33973 ft 437 kts 284°
2026-05-04 19:18 43.28906 91.82512 33984 ft 439 kts 285°
2026-05-04 19:19 43.30736 91.74612 33969 ft 438 kts 285°
2026-05-04 19:19 43.32572 91.66658 33967 ft 438 kts 285°
2026-05-04 19:20 43.34393 91.58715 33977 ft 439 kts 284°
2026-05-04 19:20 43.36220 91.50713 33989 ft 439 kts 285°
2026-05-04 19:21 43.38039 91.42728 33980 ft 439 kts 285°
2026-05-04 19:21 43.39854 91.34735 33994 ft 441 kts 284°
2026-05-04 19:22 43.41667 91.26711 34030 ft 441 kts 284°
2026-05-04 19:22 43.43478 91.18680 34049 ft 440 kts 284°
2026-05-04 19:23 43.45269 91.10699 34072 ft 441 kts 284°
2026-05-04 19:23 43.47070 91.02660 34091 ft 442 kts 284°
2026-05-04 19:24 43.48863 90.94595 34116 ft 441 kts 284°
2026-05-04 19:24 43.50658 90.86509 34125 ft 441 kts 284°
2026-05-04 19:25 43.52434 90.78461 34144 ft 442 kts 284°
2026-05-04 19:25 43.54206 90.70412 34145 ft 442 kts 284°
2026-05-04 19:26 43.55983 90.62308 34160 ft 443 kts 284°
2026-05-04 19:26 43.57766 90.54157 34134 ft 444 kts 284°
2026-05-04 19:27 43.59528 90.46059 34150 ft 444 kts 284°
2026-05-04 19:27 43.61287 90.37945 34149 ft 446 kts 284°
2026-05-04 19:28 43.63043 90.29799 34144 ft 445 kts 283°
2026-05-04 19:28 43.64802 90.21624 34145 ft 445 kts 283°
2026-05-04 19:29 43.66544 90.13484 34132 ft 445 kts 284°
2026-05-04 19:29 43.68314 90.05290 34120 ft 445 kts 284°
2026-05-04 19:30 43.70187 89.97120 34114 ft 447 kts 284°
2026-05-04 19:30 43.72050 89.88981 34116 ft 448 kts 284°
2026-05-04 19:31 43.73905 89.80804 34107 ft 447 kts 284°
2026-05-04 19:31 43.75756 89.72604 34073 ft 448 kts 284°
2026-05-04 19:32 43.77592 89.64426 34086 ft 448 kts 285°
2026-05-04 19:32 43.79424 89.56246 34068 ft 446 kts 284°
2026-05-04 19:33 43.81271 89.48056 34077 ft 448 kts 285°
2026-05-04 19:33 43.83176 89.39873 34075 ft 448 kts 285°
2026-05-04 19:34 43.85081 89.31656 34086 ft 449 kts 284°
2026-05-04 19:34 43.86964 89.23481 34077 ft 448 kts 284°
2026-05-04 19:35 43.88847 89.15265 34098 ft 448 kts 285°
2026-05-04 19:35 43.90711 89.07096 34089 ft 447 kts 284°
2026-05-04 19:36 43.92578 88.98878 34091 ft 447 kts 285°
2026-05-04 19:36 43.94437 88.90669 34104 ft 447 kts 284°
2026-05-04 19:37 43.96281 88.82494 34100 ft 447 kts 284°
2026-05-04 19:37 43.98258 88.74329 34140 ft 447 kts 287°
2026-05-04 19:38 44.00322 88.66220 34126 ft 448 kts 286°
2026-05-04 19:38 44.02372 88.58076 34145 ft 449 kts 286°
2026-05-04 19:39 44.04421 88.49870 34144 ft 449 kts 286°
2026-05-04 19:39 44.06454 88.41688 34153 ft 449 kts 286°
2026-05-04 19:40 44.08467 88.33551 34153 ft 449 kts 285°
2026-05-04 19:40 44.10486 88.25362 34150 ft 447 kts 285°
2026-05-04 19:41 44.12484 88.17215 34144 ft 447 kts 285°
2026-05-04 19:41 44.14528 88.09077 34131 ft 449 kts 288°
2026-05-04 19:42 44.17034 88.01128 34120 ft 450 kts 292°
2026-05-04 19:42 44.20055 87.93568 34104 ft 446 kts 298°
2026-05-04 19:43 44.23565 87.86448 34096 ft 449 kts 302°
2026-05-04 19:43 44.27356 87.79527 34087 ft 450 kts 303°
2026-05-04 19:44 44.31158 87.72622 34084 ft 449 kts 303°
2026-05-04 19:44 44.34928 87.65767 34083 ft 449 kts 303°
2026-05-04 19:45 44.38720 87.58885 34079 ft 448 kts 303°
2026-05-04 19:45 44.42499 87.52001 34076 ft 448 kts 303°
2026-05-04 19:46 44.46287 87.45081 34080 ft 448 kts 303°
2026-05-04 19:46 44.50051 87.38184 34078 ft 446 kts 303°
2026-05-04 19:47 44.53812 87.31278 34075 ft 446 kts 302°
2026-05-04 19:47 44.57612 87.24484 34076 ft 447 kts 304°
2026-05-04 19:48 44.61556 87.17745 34072 ft 446 kts 304°
2026-05-04 19:48 44.65470 87.11018 34068 ft 446 kts 304°
2026-05-04 19:49 44.69366 87.04272 34066 ft 445 kts 304°
2026-05-04 19:49 44.73246 86.97540 34068 ft 445 kts 304°
2026-05-04 19:50 44.77122 86.90829 34067 ft 444 kts 304°
2026-05-04 19:50 44.81000 86.84096 34060 ft 444 kts 304°
2026-05-04 19:51 44.84873 86.77347 34069 ft 443 kts 304°
2026-05-04 19:51 44.88721 86.70583 34066 ft 444 kts 304°
2026-05-04 19:52 44.92555 86.63820 34062 ft 444 kts 304°
2026-05-04 19:52 44.96399 86.57022 34059 ft 443 kts 304°
2026-05-04 19:53 45.00228 86.50237 34049 ft 442 kts 304°
2026-05-04 19:53 45.04040 86.43462 34048 ft 441 kts 304°
2026-05-04 19:54 45.07835 86.36704 34052 ft 441 kts 304°
2026-05-04 19:54 45.11620 86.29943 34046 ft 440 kts 304°
2026-05-04 19:55 45.15400 86.23121 34047 ft 441 kts 303°
2026-05-04 19:55 45.19144 86.16284 34043 ft 440 kts 303°
2026-05-04 19:56 45.22864 86.09471 34048 ft 440 kts 303°
2026-05-04 19:56 45.26613 86.02589 34033 ft 444 kts 303°
2026-05-04 19:57 45.30394 85.95640 34027 ft 444 kts 303°
2026-05-04 19:57 45.34148 85.88723 34031 ft 444 kts 303°
2026-05-04 19:58 45.37897 85.81795 34023 ft 444 kts 303°
2026-05-04 19:58 45.41629 85.74882 34023 ft 444 kts 303°
2026-05-04 19:59 45.45380 85.67915 34020 ft 443 kts 303°
2026-05-04 19:59 45.49097 85.60995 34013 ft 441 kts 303°
2026-05-04 20:00 45.52823 85.54037 34024 ft 442 kts 303°
2026-05-04 20:00 45.56525 85.47117 34009 ft 441 kts 303°
2026-05-04 20:01 45.60245 85.40139 34010 ft 440 kts 303°
2026-05-04 20:01 45.63937 85.33195 34013 ft 440 kts 303°
2026-05-04 20:02 45.67621 85.26250 34023 ft 439 kts 302°
2026-05-04 20:02 45.71287 85.19343 34026 ft 438 kts 303°
2026-05-04 20:03 45.74983 85.12464 34028 ft 438 kts 303°
2026-05-04 20:03 45.78678 85.05559 34041 ft 437 kts 303°
2026-05-04 20:04 45.82343 84.98693 34059 ft 437 kts 303°
2026-05-04 20:04 45.86021 84.91779 34082 ft 437 kts 303°
2026-05-04 20:05 45.89691 84.84866 34086 ft 436 kts 303°
2026-05-04 20:05 45.93316 84.78014 34107 ft 435 kts 303°
2026-05-04 20:06 45.96975 84.71088 34120 ft 435 kts 303°
2026-05-04 20:06 46.00602 84.64196 34130 ft 434 kts 303°
2026-05-04 20:07 46.04240 84.57276 34137 ft 433 kts 303°
2026-05-04 20:07 46.07860 84.50369 34131 ft 434 kts 303°
2026-05-04 20:08 46.11474 84.43456 34155 ft 434 kts 303°
2026-05-04 20:08 46.15104 84.36491 34163 ft 435 kts 303°
2026-05-04 20:09 46.18720 84.29527 34159 ft 435 kts 302°
2026-05-04 20:09 46.22325 84.22578 34177 ft 435 kts 302°
2026-05-04 20:10 46.25944 84.15589 34163 ft 436 kts 302°
2026-05-04 20:10 46.29566 84.08575 34187 ft 436 kts 303°
2026-05-04 20:11 46.33161 84.01601 34177 ft 435 kts 303°
2026-05-04 20:11 46.36792 83.94533 34176 ft 437 kts 303°
2026-05-04 20:12 46.40397 83.87500 34202 ft 437 kts 303°
2026-05-04 20:12 46.43994 83.80464 34173 ft 437 kts 303°
2026-05-04 20:13 46.47604 83.73378 34213 ft 438 kts 303°
2026-05-04 20:13 46.51207 83.66293 34192 ft 439 kts 304°
2026-05-04 20:14 46.54839 83.59132 34215 ft 441 kts 304°
2026-05-04 20:14 46.58437 83.52022 34205 ft 441 kts 304°
2026-05-04 20:15 46.62057 83.44839 34200 ft 442 kts 304°
2026-05-04 20:15 46.65678 83.37579 34204 ft 442 kts 303°
2026-05-04 20:16 46.68982 83.30080 34206 ft 443 kts 300°
2026-05-04 20:16 46.72214 83.22522 34207 ft 441 kts 301°
2026-05-04 20:17 46.75450 83.14939 34225 ft 439 kts 300°
2026-05-04 20:17 46.78666 83.07375 34214 ft 440 kts 301°
2026-05-04 20:18 46.81815 82.99799 34222 ft 440 kts 298°
2026-05-04 20:18 46.84471 82.91816 34215 ft 440 kts 292°
2026-05-04 20:19 46.86516 82.83415 34211 ft 440 kts 287°
2026-05-04 20:19 46.87908 82.74743 34203 ft 442 kts 281°
2026-05-04 20:20 46.88852 82.65855 34207 ft 441 kts 280°
2026-05-04 20:20 46.89748 82.57051 34205 ft 442 kts 280°
2026-05-04 20:21 46.90638 82.48222 34204 ft 441 kts 280°
2026-05-04 20:21 46.91974 82.34875 34199 ft 444 kts 279°
2026-05-04 20:22 46.92845 82.26045 34195 ft 440 kts 280°
2026-05-04 20:22 46.93715 82.17171 34184 ft 441 kts 280°
2026-05-04 20:23 46.94581 82.08273 34185 ft 444 kts 280°
2026-05-04 20:23 46.95434 81.99410 34186 ft 444 kts 281°
2026-05-04 20:24 46.96293 81.90469 34191 ft 443 kts 280°
2026-05-04 20:24 46.97124 81.81589 34191 ft 444 kts 280°
2026-05-04 20:25 46.97957 81.72626 34186 ft 445 kts 280°
2026-05-04 20:25 46.98777 81.63699 34178 ft 441 kts 281°
2026-05-04 20:26 46.99584 81.54841 34170 ft 441 kts 280°
2026-05-04 20:26 47.00382 81.46026 34169 ft 441 kts 280°
2026-05-04 20:27 47.01179 81.37118 34170 ft 441 kts 280°
2026-05-04 20:27 47.01968 81.28243 34168 ft 441 kts 279°
2026-05-04 20:28 47.02751 81.19365 34162 ft 442 kts 279°
2026-05-04 20:28 47.03522 81.10480 34170 ft 443 kts 279°
2026-05-04 20:29 47.04294 81.01535 34164 ft 445 kts 280°
2026-05-04 20:29 47.05067 80.92542 34211 ft 445 kts 279°
2026-05-04 20:30 47.05829 80.83593 34219 ft 445 kts 280°
2026-05-04 20:30 47.06580 80.74633 34203 ft 445 kts 280°
2026-05-04 20:31 47.07325 80.65683 34192 ft 445 kts 279°
2026-05-04 20:31 47.08067 80.56710 34199 ft 444 kts 280°
2026-05-04 20:32 47.08799 80.47723 34209 ft 443 kts 280°
2026-05-04 20:32 47.09521 80.38809 34228 ft 444 kts 279°
2026-05-04 20:33 47.10238 80.29829 34226 ft 442 kts 279°
2026-05-04 20:33 47.10946 80.20896 34225 ft 444 kts 279°
2026-05-04 20:34 47.11653 80.11901 34222 ft 444 kts 279°
2026-05-04 20:34 47.12348 80.02924 34232 ft 445 kts 279°
2026-05-04 20:35 47.13034 79.93991 34231 ft 445 kts 279°
2026-05-04 20:35 47.13722 79.84956 34234 ft 445 kts 279°
2026-05-04 20:36 47.14418 79.75987 34233 ft 445 kts 279°
2026-05-04 20:36 47.15111 79.67015 34232 ft 446 kts 279°
2026-05-04 20:37 47.15800 79.57958 34239 ft 445 kts 279°
2026-05-04 20:37 47.16476 79.49004 34242 ft 444 kts 279°
2026-05-04 20:38 47.17144 79.40015 34246 ft 445 kts 279°
2026-05-04 20:38 47.17810 79.30971 34246 ft 447 kts 278°
2026-05-04 20:39 47.18468 79.21896 34249 ft 446 kts 278°
2026-05-04 20:39 47.19114 79.12896 34255 ft 447 kts 279°
2026-05-04 20:40 47.19742 79.03854 34260 ft 447 kts 278°
2026-05-04 20:40 47.20361 78.94774 34257 ft 447 kts 279°
2026-05-04 20:41 47.20976 78.85679 34262 ft 449 kts 279°
2026-05-04 20:41 47.21583 78.76601 34266 ft 449 kts 278°
2026-05-04 20:42 47.22182 78.67467 34265 ft 449 kts 279°
2026-05-04 20:42 47.22773 78.58392 34269 ft 450 kts 279°
2026-05-04 20:43 47.23362 78.49257 34271 ft 450 kts 278°
2026-05-04 20:43 47.23945 78.40070 34268 ft 451 kts 279°
2026-05-04 20:44 47.24514 78.30970 34272 ft 452 kts 278°
2026-05-04 20:44 47.25084 78.21758 34272 ft 452 kts 278°
2026-05-04 20:45 47.25642 78.12608 34281 ft 453 kts 278°
2026-05-04 20:45 47.26198 78.03385 34280 ft 454 kts 278°
2026-05-04 20:46 47.26750 77.94097 34281 ft 456 kts 278°
2026-05-04 20:46 47.27291 77.84847 34274 ft 455 kts 278°
2026-05-04 20:47 47.27824 77.75648 34282 ft 455 kts 278°
2026-05-04 20:47 47.28350 77.66383 34283 ft 455 kts 278°
2026-05-04 20:48 47.28871 77.57105 34280 ft 455 kts 278°
2026-05-04 20:48 47.29382 77.47865 34280 ft 455 kts 278°
2026-05-04 20:49 47.29888 77.38595 34278 ft 456 kts 278°
2026-05-04 20:49 47.30383 77.29353 34284 ft 457 kts 277°
2026-05-04 20:50 47.30877 77.20002 34275 ft 458 kts 277°
2026-05-04 20:50 47.31358 77.10729 34279 ft 458 kts 277°
2026-05-04 20:51 47.32060 77.01400 34277 ft 457 kts 281°
2026-05-04 20:51 47.32997 76.92192 34279 ft 457 kts 282°
2026-05-04 20:52 47.33932 76.82999 34279 ft 457 kts 281°
2026-05-04 20:52 47.34863 76.73749 34278 ft 457 kts 281°
2026-05-04 20:53 47.35782 76.64535 34279 ft 458 kts 281°
2026-05-04 20:53 47.36694 76.55300 34280 ft 457 kts 281°
2026-05-04 20:54 47.37603 76.46008 34285 ft 459 kts 281°
2026-05-04 20:54 47.38501 76.36754 34279 ft 459 kts 281°
2026-05-04 20:55 47.39396 76.27445 34282 ft 459 kts 281°
2026-05-04 20:55 47.40280 76.18180 34286 ft 459 kts 281°
2026-05-04 20:56 47.41161 76.08874 34288 ft 461 kts 281°
2026-05-04 20:56 47.42039 75.99500 34283 ft 461 kts 281°
2026-05-04 20:57 47.42902 75.90196 34285 ft 461 kts 281°
2026-05-04 20:57 47.43762 75.80854 34285 ft 461 kts 280°
2026-05-04 20:58 47.44613 75.71502 34286 ft 461 kts 281°
2026-05-04 20:58 47.45457 75.62166 34281 ft 461 kts 280°
2026-05-04 20:59 47.46295 75.52806 34282 ft 461 kts 280°
2026-05-04 20:59 47.47126 75.43429 34284 ft 462 kts 281°
2026-05-04 21:00 47.47947 75.34063 34282 ft 463 kts 280°
2026-05-04 21:00 47.48768 75.24641 34284 ft 463 kts 280°
2026-05-04 21:01 47.49575 75.15266 34288 ft 462 kts 280°
2026-05-04 21:01 47.50372 75.05921 34293 ft 462 kts 279°
2026-05-04 21:02 47.51167 74.96504 34294 ft 462 kts 279°
2026-05-04 21:02 47.51952 74.87119 34296 ft 462 kts 279°
2026-05-04 21:03 47.52728 74.77732 34298 ft 462 kts 279°
2026-05-04 21:03 47.53498 74.68338 34297 ft 462 kts 279°
2026-05-04 21:04 47.54258 74.58956 34296 ft 461 kts 279°
2026-05-04 21:04 47.55016 74.49515 34296 ft 461 kts 279°
2026-05-04 21:05 47.55759 74.40151 34293 ft 460 kts 279°
2026-05-04 21:05 47.56493 74.30795 34294 ft 460 kts 278°
2026-05-04 21:06 47.57222 74.21424 34291 ft 460 kts 278°
2026-05-04 21:06 47.57944 74.12017 34292 ft 460 kts 278°
2026-05-04 21:07 47.58654 74.02683 34292 ft 460 kts 278°
2026-05-04 21:07 47.59357 73.93327 34296 ft 460 kts 278°
2026-05-04 21:08 47.60055 73.83947 34293 ft 460 kts 278°
2026-05-04 21:08 47.60746 73.74538 34293 ft 460 kts 278°
2026-05-04 21:09 47.61426 73.65191 34293 ft 459 kts 278°
2026-05-04 21:09 47.62102 73.55791 34291 ft 459 kts 278°
2026-05-04 21:10 47.62765 73.46435 34289 ft 459 kts 278°
2026-05-04 21:10 47.63424 73.37056 34287 ft 458 kts 278°
2026-05-04 21:11 47.64071 73.27731 34289 ft 458 kts 278°
2026-05-04 21:11 47.64715 73.18336 34290 ft 457 kts 278°
2026-05-04 21:12 47.65349 73.08971 34289 ft 458 kts 278°
2026-05-04 21:12 47.65973 72.99648 34282 ft 458 kts 278°
2026-05-04 21:13 47.66592 72.90257 34275 ft 458 kts 278°
2026-05-04 21:13 47.67205 72.80870 34277 ft 458 kts 278°
2026-05-04 21:14 47.67809 72.71495 34274 ft 459 kts 278°
2026-05-04 21:14 47.68404 72.62134 34276 ft 458 kts 278°
2026-05-04 21:15 47.68993 72.52744 34279 ft 458 kts 278°
2026-05-04 21:15 47.69572 72.43379 34281 ft 458 kts 278°
2026-05-04 21:16 47.70145 72.33986 34274 ft 459 kts 277°
2026-05-04 21:16 47.70708 72.24634 34273 ft 459 kts 277°
2026-05-04 21:17 47.71266 72.15243 34264 ft 459 kts 277°
2026-05-04 21:17 47.71816 72.05853 34260 ft 459 kts 277°
2026-05-04 21:18 47.72361 71.96415 34258 ft 459 kts 277°
2026-05-04 21:18 47.72895 71.87008 34256 ft 458 kts 277°
2026-05-04 21:19 47.73383 71.77595 34256 ft 459 kts 276°
2026-05-04 21:19 47.73772 71.68189 34252 ft 458 kts 276°
2026-05-04 21:20 47.74149 71.58804 34249 ft 458 kts 276°
2026-05-04 21:20 47.74528 71.49376 34243 ft 458 kts 276°
2026-05-04 21:21 47.74898 71.39983 34243 ft 459 kts 276°
2026-05-04 21:21 47.75266 71.30533 34244 ft 459 kts 275°
2026-05-04 21:22 47.75624 71.21092 34235 ft 458 kts 275°
2026-05-04 21:22 47.75973 71.11706 34235 ft 457 kts 275°
2026-05-04 21:23 47.76315 71.02310 34235 ft 458 kts 274°
2026-05-04 21:23 47.76648 70.92890 34231 ft 458 kts 275°
2026-05-04 21:24 47.76973 70.83518 34223 ft 458 kts 275°
2026-05-04 21:24 47.77292 70.74100 34226 ft 458 kts 274°
2026-05-04 21:25 47.77604 70.64632 34226 ft 459 kts 274°
2026-05-04 21:25 47.77908 70.55215 34223 ft 459 kts 274°
2026-05-04 21:26 47.78205 70.45741 34222 ft 458 kts 274°
2026-05-04 21:26 47.78492 70.36330 34223 ft 458 kts 274°
2026-05-04 21:27 47.78770 70.26914 34217 ft 458 kts 273°
2026-05-04 21:27 47.79040 70.17482 34214 ft 458 kts 273°
2026-05-04 21:28 47.79304 70.08087 34208 ft 458 kts 273°
2026-05-04 21:28 47.79561 69.98630 34208 ft 459 kts 273°
2026-05-04 21:29 47.79808 69.89184 34209 ft 459 kts 273°
2026-05-04 21:29 47.80049 69.79761 34209 ft 459 kts 273°
2026-05-04 21:30 47.80284 69.70255 34208 ft 460 kts 272°
2026-05-04 21:30 47.80508 69.60816 34208 ft 459 kts 272°
2026-05-04 21:31 47.80830 69.46665 34209 ft 459 kts 272°
2026-05-04 21:32 47.81037 69.37185 34209 ft 459 kts 272°
2026-05-04 21:32 47.81235 69.27717 34209 ft 459 kts 271°
2026-05-04 21:33 47.81423 69.18261 34208 ft 459 kts 271°
2026-05-04 21:33 47.81604 69.08844 34209 ft 459 kts 271°
2026-05-04 21:34 47.81780 68.99342 34209 ft 459 kts 271°
2026-05-04 21:34 47.81945 68.89893 34208 ft 459 kts 271°
2026-05-04 21:35 47.81844 68.80489 34206 ft 459 kts 266°
2026-05-04 21:35 47.81139 68.71033 34204 ft 459 kts 263°
2026-05-04 21:36 47.80290 68.61687 34203 ft 459 kts 263°
2026-05-04 21:36 47.79433 68.52342 34200 ft 459 kts 262°
2026-05-04 21:37 47.78563 68.42915 34199 ft 459 kts 262°
2026-05-04 21:37 47.77691 68.33556 34194 ft 459 kts 262°
2026-05-04 21:38 47.76812 68.24200 34191 ft 459 kts 262°
2026-05-04 21:38 47.75923 68.14826 34186 ft 460 kts 262°
2026-05-04 21:39 47.75029 68.05493 34185 ft 459 kts 262°
2026-05-04 21:39 47.74129 67.96167 34180 ft 459 kts 262°
2026-05-04 21:40 47.73214 67.86767 34177 ft 459 kts 262°
2026-05-04 21:40 47.72279 67.77416 34170 ft 459 kts 260°
2026-05-04 21:41 47.70992 67.68169 34173 ft 460 kts 258°
2026-05-04 21:41 47.69624 67.58974 34171 ft 460 kts 258°
2026-05-04 21:42 47.68237 67.49718 34164 ft 460 kts 258°
2026-05-04 21:42 47.66845 67.40482 34162 ft 460 kts 258°
2026-05-04 21:43 47.65449 67.31261 34159 ft 459 kts 257°
2026-05-04 21:43 47.64056 67.22106 34159 ft 459 kts 257°
2026-05-04 21:44 47.62647 67.12906 34157 ft 459 kts 257°
2026-05-04 21:44 47.61234 67.03725 34163 ft 460 kts 257°
2026-05-04 21:45 47.59799 66.94464 34171 ft 460 kts 257°
2026-05-04 21:45 47.58366 66.85271 34174 ft 460 kts 257°
2026-05-04 21:46 47.56932 66.76120 34174 ft 460 kts 257°
2026-05-04 21:46 47.55470 66.66957 34171 ft 459 kts 257°
2026-05-04 21:47 47.53964 66.57819 34170 ft 459 kts 257°
2026-05-04 21:47 47.52452 66.48690 34172 ft 458 kts 256°
2026-05-04 21:48 47.50936 66.39571 34169 ft 459 kts 256°
2026-05-04 21:48 47.49411 66.30447 34158 ft 458 kts 256°
2026-05-04 21:49 47.47880 66.21326 34156 ft 458 kts 256°
2026-05-04 21:49 47.46350 66.12260 34151 ft 458 kts 256°
2026-05-04 21:50 47.44804 66.03148 34148 ft 458 kts 256°
2026-05-04 21:50 47.43252 65.94055 34142 ft 458 kts 255°
2026-05-04 21:51 47.41695 65.84982 34138 ft 458 kts 255°
2026-05-04 21:51 47.40188 65.75924 34131 ft 458 kts 256°
2026-05-04 21:52 47.38692 65.66827 34123 ft 458 kts 256°
2026-05-04 21:52 47.37183 65.57722 34124 ft 458 kts 256°
2026-05-04 21:53 47.35672 65.48664 34122 ft 458 kts 256°
2026-05-04 21:53 47.34140 65.39542 34116 ft 458 kts 256°
2026-05-04 21:54 47.32608 65.30478 34107 ft 458 kts 255°
2026-05-04 21:54 47.31073 65.21442 34104 ft 459 kts 255°
2026-05-04 21:55 47.29519 65.12326 34099 ft 458 kts 255°
2026-05-04 21:55 47.27972 65.03318 34092 ft 458 kts 255°
2026-05-04 21:56 47.26398 64.94199 34092 ft 459 kts 255°
2026-05-04 21:56 47.24828 64.85149 34088 ft 459 kts 255°
2026-05-04 21:57 47.23249 64.76097 34088 ft 458 kts 254°
2026-05-04 21:57 47.21666 64.67071 34090 ft 458 kts 254°
2026-05-04 21:58 47.20069 64.58022 34088 ft 458 kts 254°
2026-05-04 21:58 47.18475 64.49016 34088 ft 458 kts 255°
2026-05-04 21:59 47.16883 64.40021 34086 ft 458 kts 254°
2026-05-04 21:59 47.15272 64.30969 34087 ft 457 kts 253°
2026-05-04 22:00 47.13669 64.22014 34085 ft 457 kts 253°
2026-05-04 22:00 47.12052 64.13023 34086 ft 456 kts 253°
2026-05-04 22:01 47.10426 64.04034 34086 ft 457 kts 253°
2026-05-04 22:01 47.08808 63.95120 34086 ft 456 kts 253°
2026-05-04 22:02 47.07163 63.86116 34085 ft 457 kts 253°
2026-05-04 22:02 47.05521 63.77161 34084 ft 457 kts 253°
2026-05-04 22:03 47.03870 63.68209 34084 ft 457 kts 253°
2026-05-04 22:03 47.02216 63.59279 34085 ft 457 kts 253°
2026-05-04 22:04 47.00554 63.50352 34082 ft 457 kts 253°
2026-05-04 22:04 46.98877 63.41381 34080 ft 456 kts 253°
2026-05-04 22:05 46.97196 63.32442 34080 ft 456 kts 253°
2026-05-04 22:05 46.95515 63.23544 34069 ft 456 kts 253°
2026-05-04 22:06 46.93823 63.14623 34065 ft 456 kts 253°
2026-05-04 22:06 46.92131 63.05741 34061 ft 456 kts 253°
2026-05-04 22:07 46.90435 62.96886 34063 ft 456 kts 253°
2026-05-04 22:07 46.88717 62.87949 34057 ft 456 kts 253°
2026-05-04 22:08 46.87004 62.79095 34050 ft 457 kts 253°
2026-05-04 22:08 46.85276 62.70197 34059 ft 457 kts 253°
2026-05-04 22:09 46.83543 62.61323 34039 ft 457 kts 253°
2026-05-04 22:09 46.81797 62.52412 34057 ft 457 kts 253°
2026-05-04 22:10 46.80051 62.43538 34053 ft 457 kts 253°
2026-05-04 22:10 46.78294 62.34649 34055 ft 456 kts 253°
2026-05-04 22:11 46.76545 62.25840 34061 ft 456 kts 253°
2026-05-04 22:11 46.74778 62.16981 34052 ft 456 kts 253°
2026-05-04 22:12 46.73004 62.08128 34050 ft 457 kts 253°
2026-05-04 22:12 46.71221 61.99276 34058 ft 458 kts 253°
2026-05-04 22:13 46.69435 61.90447 34061 ft 457 kts 253°
2026-05-04 22:13 46.67628 61.81554 34063 ft 457 kts 253°
2026-05-04 22:14 46.65825 61.72714 34061 ft 457 kts 253°
2026-05-04 22:14 46.64024 61.63927 34063 ft 457 kts 253°
2026-05-04 22:15 46.62201 61.55066 34063 ft 458 kts 253°
2026-05-04 22:15 46.60375 61.46232 34060 ft 457 kts 253°
2026-05-04 22:16 46.58544 61.37415 34058 ft 458 kts 253°
2026-05-04 22:16 46.56708 61.28613 34059 ft 458 kts 252°
2026-05-04 22:17 46.54858 61.19783 34057 ft 458 kts 252°
2026-05-04 22:17 46.52998 61.10945 34067 ft 459 kts 253°
2026-05-04 22:18 46.51134 61.02121 34066 ft 459 kts 253°
2026-05-04 22:18 46.49265 60.93312 34060 ft 460 kts 253°
2026-05-04 22:19 46.47389 60.84505 34054 ft 460 kts 253°
2026-05-04 22:19 46.45502 60.75690 34058 ft 459 kts 253°
2026-05-04 22:20 46.43607 60.66874 34051 ft 459 kts 253°
2026-05-04 22:20 46.41711 60.58093 34048 ft 459 kts 253°
2026-05-04 22:21 46.39797 60.49267 34046 ft 459 kts 253°
2026-05-04 22:21 46.37889 60.40505 34034 ft 458 kts 253°
2026-05-04 22:22 46.35971 60.31730 34016 ft 458 kts 252°
2026-05-04 22:22 46.34057 60.23011 34031 ft 458 kts 252°
2026-05-04 22:23 46.32129 60.14265 34037 ft 458 kts 252°
2026-05-04 22:23 46.30184 60.05477 34037 ft 459 kts 252°
2026-05-04 22:24 46.28249 59.96775 34039 ft 459 kts 252°
2026-05-04 22:24 46.26294 59.88016 34033 ft 460 kts 252°
2026-05-04 22:25 46.24338 59.79287 34036 ft 459 kts 252°
2026-05-04 22:25 46.22365 59.70529 34034 ft 458 kts 252°
2026-05-04 22:26 46.20385 59.61826 34036 ft 458 kts 252°
2026-05-04 22:26 46.18407 59.53170 34037 ft 458 kts 252°
2026-05-04 22:27 46.16420 59.44509 34034 ft 458 kts 252°
2026-05-04 22:27 46.14417 59.35812 34037 ft 458 kts 252°
2026-05-04 22:28 46.12409 59.27121 34031 ft 458 kts 251°
2026-05-04 22:28 46.10397 59.18455 34030 ft 457 kts 251°
2026-05-04 22:29 46.08377 59.09785 34037 ft 457 kts 251°
2026-05-04 22:29 46.06361 59.01166 34034 ft 458 kts 251°
2026-05-04 22:30 46.04321 58.92480 34034 ft 458 kts 251°
2026-05-04 22:30 46.02292 58.83872 34035 ft 458 kts 251°
2026-05-04 22:31 46.00240 58.75206 34030 ft 458 kts 251°
2026-05-04 22:31 45.98193 58.66590 34033 ft 457 kts 251°
2026-05-04 22:32 45.96132 58.57951 34029 ft 457 kts 251°
2026-05-04 22:32 45.94072 58.49352 34026 ft 456 kts 251°
2026-05-04 22:33 45.92011 58.40779 34024 ft 457 kts 251°
2026-05-04 22:33 45.89936 58.32180 34022 ft 457 kts 250°
2026-05-04 22:34 45.87857 58.23602 34016 ft 457 kts 250°
2026-05-04 22:34 45.85776 58.15051 34015 ft 457 kts 250°
2026-05-04 22:35 45.83680 58.06456 34009 ft 456 kts 250°
2026-05-04 22:35 45.81587 57.97914 34009 ft 456 kts 250°
2026-05-04 22:36 45.79485 57.89374 34003 ft 455 kts 250°
2026-05-04 22:36 45.77386 57.80876 33996 ft 455 kts 250°
2026-05-04 22:37 45.75279 57.72373 33992 ft 454 kts 250°
2026-05-04 22:37 45.73175 57.63924 33992 ft 454 kts 250°
2026-05-04 22:38 45.71052 57.55426 33989 ft 453 kts 250°
2026-05-04 22:38 45.68938 57.46994 33993 ft 453 kts 250°
2026-05-04 22:39 45.66814 57.38547 33989 ft 452 kts 250°
2026-05-04 22:39 45.64698 57.30167 33990 ft 450 kts 249°
2026-05-04 22:40 45.62568 57.21767 33983 ft 450 kts 249°
2026-05-04 22:40 45.60438 57.13394 33976 ft 450 kts 249°
2026-05-04 22:41 45.58299 57.05016 33978 ft 450 kts 249°
2026-05-04 22:41 45.56171 56.96715 33968 ft 449 kts 249°
2026-05-04 22:42 45.54019 56.88345 33961 ft 448 kts 249°
2026-05-04 22:42 45.51878 56.80052 33955 ft 448 kts 249°
2026-05-04 22:43 45.49738 56.71786 33953 ft 447 kts 249°
2026-05-04 22:43 45.47575 56.63463 33954 ft 448 kts 249°
2026-05-04 22:44 45.45427 56.55230 33954 ft 447 kts 249°
2026-05-04 22:44 45.43254 56.46928 33949 ft 447 kts 249°
2026-05-04 22:45 45.41084 56.38667 33950 ft 447 kts 249°
2026-05-04 22:45 45.37820 56.26301 33949 ft 446 kts 248°
2026-05-04 22:46 45.35652 56.18120 33942 ft 445 kts 248°
2026-05-04 22:46 45.33463 56.09883 33940 ft 445 kts 248°
2026-05-04 22:47 45.31277 56.01690 33934 ft 444 kts 248°
2026-05-04 22:47 45.29100 55.93560 33943 ft 444 kts 248°
2026-05-04 22:48 45.26910 55.85406 33938 ft 444 kts 248°
2026-05-04 22:48 45.24710 55.77249 33938 ft 444 kts 248°
2026-05-04 22:49 45.22494 55.69060 33939 ft 444 kts 248°
2026-05-04 22:49 45.20283 55.60914 33935 ft 443 kts 248°
2026-05-04 22:50 45.18086 55.52848 33940 ft 443 kts 248°
2026-05-04 22:50 45.15872 55.44741 33941 ft 443 kts 248°
2026-05-04 22:51 45.13646 55.36623 33939 ft 442 kts 248°
2026-05-04 22:51 45.11324 55.28633 33942 ft 440 kts 244°
2026-05-04 22:52 45.08379 55.21104 33940 ft 439 kts 237°
2026-05-04 22:52 45.04795 55.14172 33937 ft 438 kts 230°
2026-05-04 22:53 45.00630 55.07939 33936 ft 439 kts 224°
2026-05-04 22:53 44.96141 55.02097 33939 ft 440 kts 224°
2026-05-04 22:54 44.91652 54.96270 33934 ft 440 kts 224°
2026-05-04 22:54 44.87155 54.90450 33935 ft 440 kts 224°
2026-05-04 22:55 44.82652 54.84640 33936 ft 439 kts 223°
2026-05-04 22:55 44.78141 54.78834 33938 ft 439 kts 223°
2026-05-04 22:56 44.73655 54.73076 33934 ft 439 kts 223°
2026-05-04 22:56 44.69218 54.67238 33938 ft 438 kts 226°
2026-05-04 22:57 44.65136 54.60893 33939 ft 438 kts 231°
2026-05-04 22:57 44.61520 54.54092 33940 ft 438 kts 235°
2026-05-04 22:58 44.58026 54.47089 33939 ft 438 kts 235°
2026-05-04 22:58 44.54539 54.40117 33942 ft 438 kts 235°
2026-05-04 22:59 44.51062 54.33175 33944 ft 439 kts 234°
2026-05-04 22:59 44.47548 54.26171 33943 ft 439 kts 234°
2026-05-04 23:00 44.44059 54.19231 33938 ft 439 kts 234°
2026-05-04 23:00 44.40562 54.12290 33937 ft 439 kts 234°
2026-05-04 23:01 44.37035 54.05310 33938 ft 440 kts 234°
2026-05-04 23:01 44.33508 53.98344 33942 ft 440 kts 234°
2026-05-04 23:02 44.29997 53.91428 33937 ft 439 kts 234°
2026-05-04 23:02 44.26484 53.84528 33940 ft 438 kts 234°
2026-05-04 23:03 44.22949 53.77596 33938 ft 437 kts 234°
2026-05-04 23:03 44.19447 53.70747 33937 ft 437 kts 234°
2026-05-04 23:04 44.15910 53.63844 33940 ft 440 kts 234°
2026-05-04 23:04 44.12349 53.56911 33940 ft 441 kts 234°
2026-05-04 23:05 44.08785 53.49990 33941 ft 442 kts 234°
2026-05-04 23:05 44.05225 53.43092 33943 ft 442 kts 234°
2026-05-04 23:06 44.01654 53.36187 33943 ft 442 kts 234°
2026-05-04 23:06 43.98066 53.29269 33949 ft 442 kts 233°
2026-05-04 23:07 43.94470 53.22351 33949 ft 442 kts 233°
2026-05-04 23:07 43.90889 53.15479 33948 ft 441 kts 233°
2026-05-04 23:08 43.87322 53.08651 33955 ft 440 kts 233°
2026-05-04 23:08 43.83726 53.01788 33952 ft 439 kts 233°
2026-05-04 23:09 43.80138 52.94955 33953 ft 440 kts 233°
2026-05-04 23:09 43.76565 52.88167 33949 ft 440 kts 233°
2026-05-04 23:10 43.72973 52.81357 33949 ft 440 kts 233°
2026-05-04 23:10 43.69372 52.74546 33955 ft 440 kts 233°
2026-05-04 23:11 43.65772 52.67755 33952 ft 440 kts 233°
2026-05-04 23:11 43.62147 52.60957 33948 ft 440 kts 233°
2026-05-04 23:12 43.58534 52.54202 33955 ft 440 kts 233°
2026-05-04 23:12 43.54911 52.47445 33946 ft 439 kts 233°
2026-05-04 23:13 43.51307 52.40735 33951 ft 438 kts 233°
2026-05-04 23:13 43.47686 52.34007 33943 ft 438 kts 232°
2026-05-04 23:14 43.44060 52.27287 33945 ft 438 kts 232°
2026-05-04 23:14 43.40451 52.20610 33947 ft 438 kts 232°
2026-05-04 23:15 43.36800 52.13874 33935 ft 438 kts 232°
2026-05-04 23:15 43.33188 52.07223 33953 ft 437 kts 232°
2026-05-04 23:16 43.29561 52.00560 33944 ft 437 kts 232°
2026-05-04 23:16 43.25927 51.93899 33943 ft 437 kts 232°
2026-05-04 23:17 43.22278 51.87227 33949 ft 437 kts 232°
2026-05-04 23:17 43.18648 51.80606 33939 ft 437 kts 232°
2026-05-04 23:18 43.15012 51.73988 33949 ft 436 kts 232°
2026-05-04 23:18 43.11380 51.67389 33938 ft 436 kts 232°
2026-05-04 23:19 43.07725 51.60767 33962 ft 436 kts 232°
2026-05-04 23:19 43.04081 51.54176 33963 ft 436 kts 232°
2026-05-04 23:20 43.00441 51.47607 33967 ft 435 kts 232°
2026-05-04 23:20 42.96778 51.41012 33969 ft 435 kts 232°
2026-05-04 23:21 42.93142 51.34481 33971 ft 434 kts 232°
2026-05-04 23:21 42.89508 51.27970 33968 ft 434 kts 232°
2026-05-04 23:22 42.85860 51.21446 33971 ft 434 kts 232°
2026-05-04 23:22 42.82216 51.14942 33970 ft 433 kts 232°
2026-05-04 23:23 42.78559 51.08431 33973 ft 432 kts 232°
2026-05-04 23:23 42.74931 51.01985 33973 ft 432 kts 232°
2026-05-04 23:24 42.71285 50.95518 33971 ft 431 kts 232°
2026-05-04 23:24 42.67654 50.89096 33972 ft 429 kts 232°
2026-05-04 23:25 42.64017 50.82673 33974 ft 429 kts 232°
2026-05-04 23:25 42.60399 50.76299 33974 ft 429 kts 232°
2026-05-04 23:26 42.56757 50.69899 33972 ft 428 kts 232°
2026-05-04 23:26 42.53131 50.63541 33973 ft 428 kts 232°
2026-05-04 23:27 42.49504 50.57190 33973 ft 427 kts 232°
2026-05-04 23:27 42.45870 50.50842 33973 ft 427 kts 232°
2026-05-04 23:28 42.42339 50.44467 33972 ft 427 kts 234°
2026-05-04 23:28 42.38898 50.37959 33974 ft 426 kts 234°
2026-05-04 23:29 42.35461 50.31479 33978 ft 424 kts 234°
2026-05-04 23:29 42.32015 50.24984 33972 ft 424 kts 233°
2026-05-04 23:30 42.28595 50.18551 33973 ft 424 kts 233°
2026-05-04 23:30 42.25173 50.12125 33978 ft 423 kts 233°
2026-05-04 23:31 42.21744 50.05705 33976 ft 422 kts 233°
2026-05-04 23:31 42.18331 49.99320 33976 ft 421 kts 233°
2026-05-04 23:32 42.14925 49.92967 33985 ft 420 kts 233°
2026-05-04 23:32 42.11496 49.86588 33982 ft 420 kts 233°
2026-05-04 23:33 42.08099 49.80273 33992 ft 419 kts 233°
2026-05-04 23:33 42.04693 49.73958 33990 ft 419 kts 233°
2026-05-04 23:34 42.01269 49.67627 33991 ft 418 kts 233°
2026-05-04 23:34 41.97875 49.61361 33990 ft 418 kts 234°
2026-05-04 23:35 41.94459 49.55064 33994 ft 417 kts 233°
2026-05-04 23:35 41.91047 49.48788 33994 ft 417 kts 233°
2026-05-04 23:36 41.87645 49.42545 33997 ft 416 kts 233°
2026-05-04 23:36 41.84237 49.36304 33994 ft 416 kts 233°
2026-05-04 23:37 41.80838 49.30018 33993 ft 415 kts 234°
2026-05-04 23:37 41.77659 49.23632 33993 ft 414 kts 235°
2026-05-04 23:38 41.74476 49.17253 33991 ft 413 kts 235°
2026-05-04 23:38 41.71272 49.10842 33989 ft 413 kts 235°
2026-05-04 23:39 41.68093 49.04487 33991 ft 413 kts 235°
2026-05-04 23:39 41.64922 48.98163 33994 ft 413 kts 235°
2026-05-04 23:40 41.61736 48.91812 33994 ft 413 kts 235°
2026-05-04 23:40 41.58541 48.85461 33995 ft 412 kts 234°
2026-05-04 23:41 41.55351 48.79137 33993 ft 411 kts 234°
2026-05-04 23:41 41.52134 48.72891 33991 ft 411 kts 232°
2026-05-04 23:42 41.48732 48.66793 33991 ft 411 kts 232°
2026-05-04 23:42 41.45337 48.60696 33990 ft 409 kts 232°
2026-05-04 23:43 41.41951 48.54635 33991 ft 408 kts 232°
2026-05-04 23:43 41.38621 48.48531 33995 ft 408 kts 233°
2026-05-04 23:44 41.35310 48.42438 34001 ft 408 kts 233°
2026-05-04 23:44 41.31994 48.36358 34016 ft 406 kts 232°
2026-05-04 23:45 41.28695 48.30327 34049 ft 406 kts 232°
2026-05-04 23:45 41.25377 48.24263 34080 ft 405 kts 232°
2026-05-04 23:46 41.22078 48.18257 34119 ft 404 kts 231°
2026-05-04 23:46 41.18763 48.12239 34131 ft 404 kts 232°
2026-05-04 23:47 41.15562 48.06152 34134 ft 405 kts 235°
2026-05-04 23:47 41.12806 47.99684 34123 ft 405 kts 240°
2026-05-04 23:48 41.10548 47.92877 34100 ft 405 kts 245°
2026-05-04 23:48 41.08792 47.85739 34068 ft 409 kts 249°
2026-05-04 23:49 41.07443 47.78389 34048 ft 410 kts 251°
2026-05-04 23:49 41.06122 47.71053 34028 ft 412 kts 251°
2026-05-04 23:50 41.04802 47.63696 34013 ft 412 kts 251°
2026-05-04 23:50 41.03485 47.56358 34000 ft 411 kts 251°
2026-05-04 23:51 41.02167 47.49020 33991 ft 413 kts 251°
2026-05-04 23:51 41.00829 47.41618 33984 ft 413 kts 251°
2026-05-04 23:52 40.99497 47.34270 33973 ft 414 kts 250°
2026-05-04 23:52 40.98156 47.26897 33964 ft 414 kts 250°
2026-05-04 23:53 40.96801 47.19484 33961 ft 415 kts 250°
2026-05-04 23:53 40.95450 47.12106 33946 ft 416 kts 250°
2026-05-04 23:54 40.94083 47.04677 33949 ft 417 kts 250°
2026-05-04 23:54 40.92716 46.97281 33950 ft 417 kts 251°
2026-05-04 23:55 40.91331 46.89825 33944 ft 417 kts 251°
2026-05-04 23:56 40.89592 46.78543 33947 ft 423 kts 256°
2026-05-04 23:56 40.88858 46.70887 33938 ft 425 kts 257°
2026-05-04 23:57 40.88125 46.63168 33948 ft 425 kts 257°
2026-05-04 23:57 40.87384 46.55402 33949 ft 428 kts 257°
2026-05-04 23:58 40.86638 46.47612 33943 ft 428 kts 257°
2026-05-04 23:58 40.85889 46.39841 33950 ft 430 kts 257°
2026-05-04 23:59 40.85131 46.32036 33943 ft 431 kts 256°
2026-05-04 23:59 40.84364 46.24220 33960 ft 432 kts 256°
2026-05-05 00:00 40.83592 46.16379 33947 ft 431 kts 256°
2026-05-05 00:00 40.82815 46.08570 33959 ft 431 kts 257°
2026-05-05 00:01 40.82034 46.00737 33960 ft 431 kts 257°
2026-05-05 00:01 40.81245 45.92896 33947 ft 434 kts 256°
2026-05-05 00:02 40.80451 45.85052 33959 ft 434 kts 256°
2026-05-05 00:02 40.79642 45.77151 33975 ft 435 kts 257°
2026-05-05 00:03 40.78835 45.69269 33986 ft 436 kts 257°
2026-05-05 00:03 40.78016 45.61371 33992 ft 437 kts 257°
2026-05-05 00:04 40.77313 45.53402 33990 ft 441 kts 260°
2026-05-05 00:04 40.77144 45.45306 34012 ft 446 kts 265°
2026-05-05 00:05 40.77457 45.37112 34017 ft 449 kts 267°
2026-05-05 00:05 40.77826 45.28948 34018 ft 450 kts 267°
2026-05-05 00:06 40.78198 45.20714 34022 ft 450 kts 267°
2026-05-05 00:06 40.78565 45.12490 34036 ft 451 kts 267°
2026-05-05 00:07 40.78921 45.04271 34027 ft 452 kts 268°
2026-05-05 00:07 40.79275 44.96005 34026 ft 454 kts 268°
2026-05-05 00:08 40.79628 44.87710 34044 ft 454 kts 268°
2026-05-05 00:08 40.79969 44.79434 34051 ft 454 kts 268°
2026-05-05 00:09 40.80310 44.71133 34058 ft 454 kts 268°
2026-05-05 00:09 40.80638 44.62881 34056 ft 454 kts 268°
2026-05-05 00:10 40.80964 44.54565 34057 ft 454 kts 268°
2026-05-05 00:10 40.81283 44.46266 34058 ft 455 kts 268°
2026-05-05 00:11 40.81598 44.37951 34053 ft 456 kts 268°
2026-05-05 00:11 40.81905 44.29661 34055 ft 455 kts 268°
2026-05-05 00:12 40.82209 44.21320 34056 ft 456 kts 268°
2026-05-05 00:12 40.82506 44.12996 34045 ft 456 kts 268°
2026-05-05 00:13 40.82798 44.04625 34057 ft 457 kts 268°
2026-05-05 00:13 40.83082 43.96298 34052 ft 457 kts 268°
2026-05-05 00:14 40.83359 43.87962 34037 ft 458 kts 268°
2026-05-05 00:14 40.83635 43.79591 34029 ft 457 kts 268°
2026-05-05 00:15 40.83903 43.71193 34040 ft 457 kts 268°
2026-05-05 00:15 40.84264 43.62825 34046 ft 458 kts 270°
2026-05-05 00:16 40.84752 43.54501 34048 ft 458 kts 270°
2026-05-05 00:16 40.85231 43.46159 34050 ft 458 kts 270°
2026-05-05 00:17 40.85696 43.37786 34054 ft 459 kts 270°
2026-05-05 00:17 40.86149 43.29409 34063 ft 459 kts 270°
2026-05-05 00:18 40.86596 43.21004 34071 ft 459 kts 270°
2026-05-05 00:18 40.87034 43.12660 34074 ft 459 kts 270°
2026-05-05 00:19 40.87469 43.04255 34059 ft 459 kts 270°
2026-05-05 00:19 40.87895 42.95875 34058 ft 460 kts 270°
2026-05-05 00:20 40.88314 42.87502 34062 ft 460 kts 270°
2026-05-05 00:20 40.88730 42.79089 34060 ft 460 kts 270°
2026-05-05 00:21 40.89139 42.70703 34069 ft 460 kts 270°
2026-05-05 00:21 40.89543 42.62305 34061 ft 460 kts 270°
2026-05-05 00:22 40.89940 42.53905 34050 ft 460 kts 270°
2026-05-05 00:22 40.90333 42.45469 34046 ft 459 kts 270°
2026-05-05 00:23 40.90717 42.37091 34056 ft 459 kts 270°
2026-05-05 00:23 40.91095 42.28681 34055 ft 459 kts 269°
2026-05-05 00:24 40.91468 42.20278 34045 ft 459 kts 269°
2026-05-05 00:24 40.91832 42.11926 34052 ft 459 kts 269°
2026-05-05 00:25 40.92191 42.03513 34035 ft 459 kts 269°
2026-05-05 00:25 40.92545 41.95091 34045 ft 460 kts 270°
2026-05-05 00:26 40.92894 41.86678 34062 ft 460 kts 270°
2026-05-05 00:26 40.93237 41.78249 34063 ft 461 kts 270°
2026-05-05 00:27 40.93573 41.69844 34076 ft 461 kts 270°
2026-05-05 00:27 40.93904 41.61399 34070 ft 460 kts 270°
2026-05-05 00:28 40.94228 41.52993 34065 ft 460 kts 269°
2026-05-05 00:28 40.94545 41.44612 34057 ft 460 kts 269°
2026-05-05 00:29 40.94857 41.36145 34059 ft 460 kts 269°
2026-05-05 00:29 40.95160 41.27752 34064 ft 460 kts 269°
2026-05-05 00:30 40.95458 41.19349 34067 ft 460 kts 269°
2026-05-05 00:30 40.95754 41.10875 34065 ft 461 kts 269°
2026-05-05 00:31 40.96041 41.02439 34063 ft 460 kts 269°
2026-05-05 00:31 40.96319 40.94067 34055 ft 461 kts 269°
2026-05-05 00:32 40.96594 40.85622 34051 ft 461 kts 269°
2026-05-05 00:32 40.96867 40.77120 34033 ft 462 kts 269°
2026-05-05 00:33 40.97132 40.68668 34027 ft 462 kts 269°
2026-05-05 00:33 40.97388 40.60253 34023 ft 463 kts 269°
2026-05-05 00:34 40.97639 40.51718 34018 ft 463 kts 269°
2026-05-05 00:34 40.97882 40.43273 34012 ft 464 kts 269°
2026-05-05 00:35 40.98123 40.34785 34013 ft 464 kts 269°
2026-05-05 00:35 40.98354 40.26279 34007 ft 464 kts 269°
2026-05-05 00:36 40.98582 40.17722 34003 ft 465 kts 269°
2026-05-05 00:36 40.98799 40.09259 34008 ft 466 kts 269°
2026-05-05 00:37 40.99011 40.00692 34006 ft 467 kts 269°
2026-05-05 00:37 40.99189 39.92152 34003 ft 467 kts 267°
2026-05-05 00:38 40.98664 39.83643 34006 ft 463 kts 258°
2026-05-05 00:38 40.97179 39.75426 34007 ft 460 kts 250°
2026-05-05 00:39 40.94781 39.67614 34005 ft 458 kts 242°
2026-05-05 00:39 40.91874 39.60191 34002 ft 459 kts 241°
2026-05-05 00:40 40.88921 39.52730 33996 ft 460 kts 241°
2026-05-05 00:40 40.85950 39.45227 33997 ft 460 kts 241°
2026-05-05 00:41 40.82994 39.37769 33999 ft 459 kts 241°
2026-05-05 00:41 40.80038 39.30331 34004 ft 460 kts 240°
2026-05-05 00:42 40.77082 39.22908 34001 ft 460 kts 240°
2026-05-05 00:42 40.74113 39.15469 34001 ft 460 kts 240°
2026-05-05 00:43 40.71130 39.08013 33998 ft 460 kts 240°
2026-05-05 00:43 40.68157 39.00602 34005 ft 460 kts 240°
2026-05-05 00:44 40.65177 38.93192 34009 ft 461 kts 240°
2026-05-05 00:44 40.62156 38.85720 34011 ft 462 kts 240°
2026-05-05 00:45 40.59137 38.78298 34007 ft 462 kts 240°
2026-05-05 00:45 40.56130 38.70922 34004 ft 462 kts 240°
2026-05-05 00:46 40.53093 38.63485 33998 ft 462 kts 240°
2026-05-05 00:46 40.50055 38.56086 33995 ft 462 kts 240°
2026-05-05 00:47 40.46915 38.48749 33990 ft 462 kts 239°
2026-05-05 00:47 40.43753 38.41421 33986 ft 462 kts 239°
2026-05-05 00:48 40.40593 38.34083 33989 ft 463 kts 239°
2026-05-05 00:48 40.37455 38.26790 33999 ft 463 kts 240°
2026-05-05 00:49 40.34459 38.19319 34092 ft 470 kts 241°
2026-05-05 00:49 40.32941 38.15503 34321 ft 471 kts 241°
2026-05-05 00:49 40.31405 38.11748 34626 ft 469 kts 240°
2026-05-05 00:49 40.29821 38.07992 34947 ft 468 kts 239°
2026-05-05 00:50 40.28251 38.04301 35221 ft 467 kts 240°
2026-05-05 00:50 40.26685 38.00621 35475 ft 467 kts 240°
2026-05-05 00:50 40.25095 37.96883 35727 ft 467 kts 240°
2026-05-05 00:50 40.23535 37.93212 35912 ft 467 kts 240°
2026-05-05 00:51 40.21961 37.89510 35925 ft 468 kts 240°
2026-05-05 00:51 40.18810 37.82104 35920 ft 468 kts 240°
2026-05-05 00:52 40.15632 37.74649 35908 ft 468 kts 240°
2026-05-05 00:52 40.12471 37.67255 35908 ft 468 kts 240°
2026-05-05 00:53 40.09301 37.59861 35906 ft 468 kts 240°
2026-05-05 00:53 40.06158 37.52522 35902 ft 467 kts 240°
2026-05-05 00:54 40.03002 37.45134 35890 ft 468 kts 240°
2026-05-05 00:54 39.99833 37.37732 35889 ft 468 kts 240°
2026-05-05 00:55 39.96666 37.30360 35894 ft 468 kts 240°
2026-05-05 00:55 39.93504 37.23013 35900 ft 468 kts 240°
2026-05-05 00:56 39.90318 37.15626 35897 ft 467 kts 240°
2026-05-05 00:56 39.87130 37.08254 35899 ft 467 kts 240°
2026-05-05 00:57 39.83956 37.00956 35895 ft 467 kts 239°
2026-05-05 00:57 39.80328 36.93991 35890 ft 468 kts 232°
2026-05-05 00:58 39.76043 36.87670 35890 ft 467 kts 225°
2026-05-05 00:58 39.71164 36.82092 35886 ft 467 kts 218°
2026-05-05 00:59 39.65942 36.77131 35890 ft 467 kts 216°
2026-05-05 00:59 39.60699 36.72200 35891 ft 466 kts 217°
2026-05-05 01:00 39.55458 36.67277 35888 ft 467 kts 217°
2026-05-05 01:00 39.50212 36.62355 35875 ft 467 kts 217°
2026-05-05 01:01 39.44970 36.57447 35874 ft 467 kts 217°
2026-05-05 01:01 39.39727 36.52546 35870 ft 466 kts 217°
2026-05-05 01:02 39.34477 36.47649 35869 ft 466 kts 217°
2026-05-05 01:02 39.29234 36.42765 35869 ft 467 kts 217°
2026-05-05 01:03 39.23992 36.37895 35876 ft 466 kts 217°
2026-05-05 01:03 39.18733 36.33017 35876 ft 466 kts 216°
2026-05-05 01:04 39.13472 36.28145 35872 ft 466 kts 216°
2026-05-05 01:04 39.05570 36.20845 35870 ft 466 kts 217°
2026-05-05 01:05 39.00353 36.16038 35866 ft 465 kts 217°
2026-05-05 01:05 38.95086 36.11193 35868 ft 465 kts 217°
2026-05-05 01:06 38.89834 36.06370 35875 ft 465 kts 217°
2026-05-05 01:06 38.84568 36.01543 35886 ft 465 kts 217°
2026-05-05 01:07 38.79326 35.96748 35892 ft 465 kts 217°
2026-05-05 01:07 38.74093 35.91968 35890 ft 465 kts 217°
2026-05-05 01:08 38.68817 35.87159 35891 ft 464 kts 217°
2026-05-05 01:08 38.63613 35.82426 35896 ft 463 kts 217°
2026-05-05 01:09 38.58339 35.77638 35896 ft 463 kts 217°
2026-05-05 01:09 38.53135 35.72921 35902 ft 462 kts 217°
2026-05-05 01:10 38.47889 35.68173 35900 ft 462 kts 217°
2026-05-05 01:10 38.42659 35.63448 35893 ft 463 kts 217°
2026-05-05 01:11 38.37408 35.58712 35887 ft 464 kts 217°
2026-05-05 01:11 38.32143 35.53973 35881 ft 463 kts 217°
2026-05-05 01:12 38.26884 35.49272 35884 ft 463 kts 215°
2026-05-05 01:12 38.21236 35.45409 35890 ft 464 kts 209°
2026-05-05 01:13 38.15487 35.41753 35902 ft 464 kts 209°
2026-05-05 01:13 38.09707 35.38053 35899 ft 463 kts 209°
2026-05-05 01:14 38.03963 35.34359 35885 ft 464 kts 208°
2026-05-05 01:14 37.98234 35.30672 35853 ft 464 kts 209°
2026-05-05 01:15 37.92491 35.26980 35857 ft 465 kts 209°
2026-05-05 01:15 37.86731 35.23282 35838 ft 465 kts 209°
2026-05-05 01:16 37.80969 35.19588 35841 ft 464 kts 209°
2026-05-05 01:16 37.75188 35.15889 35860 ft 464 kts 209°
2026-05-05 01:17 37.69458 35.12231 35856 ft 463 kts 209°
2026-05-05 01:17 37.63698 35.08559 35873 ft 463 kts 209°
2026-05-05 01:18 37.57988 35.04922 35903 ft 464 kts 209°
2026-05-05 01:18 37.52234 35.01268 35907 ft 463 kts 209°
2026-05-05 01:19 37.46470 34.97613 35911 ft 462 kts 209°
2026-05-05 01:19 37.40757 34.93997 35899 ft 462 kts 209°
2026-05-05 01:20 37.35004 34.90360 35901 ft 461 kts 210°
2026-05-05 01:20 37.29298 34.86758 35918 ft 462 kts 210°
2026-05-05 01:21 37.23542 34.83133 35932 ft 463 kts 209°
2026-05-05 01:21 37.17794 34.79519 35915 ft 461 kts 210°
2026-05-05 01:22 37.12071 34.75926 35925 ft 460 kts 210°
2026-05-05 01:22 37.06369 34.72353 35929 ft 460 kts 210°
2026-05-05 01:23 37.00648 34.68773 35941 ft 460 kts 210°
2026-05-05 01:23 36.94936 34.65208 35939 ft 460 kts 210°
2026-05-05 01:24 36.89222 34.61642 35926 ft 460 kts 210°
2026-05-05 01:24 36.83489 34.58073 35942 ft 461 kts 210°
2026-05-05 01:25 36.77784 34.54527 35933 ft 461 kts 210°
2026-05-05 01:25 36.72022 34.50953 35946 ft 461 kts 210°
2026-05-05 01:26 36.66309 34.47416 35945 ft 461 kts 210°
2026-05-05 01:26 36.60567 34.43864 35937 ft 461 kts 210°
2026-05-05 01:27 36.54833 34.40326 35937 ft 461 kts 210°
2026-05-05 01:27 36.49089 34.36787 35924 ft 461 kts 210°
2026-05-05 01:28 36.43373 34.33270 35924 ft 461 kts 210°
2026-05-05 01:28 36.37631 34.29742 35930 ft 461 kts 210°
2026-05-05 01:29 36.31862 34.26205 35931 ft 461 kts 210°
2026-05-05 01:29 36.26119 34.22689 35938 ft 462 kts 210°
2026-05-05 01:30 36.20391 34.19187 35928 ft 460 kts 210°
2026-05-05 01:30 36.14645 34.15681 35912 ft 460 kts 210°
2026-05-05 01:31 36.08924 34.12196 35924 ft 461 kts 210°
2026-05-05 01:31 36.03187 34.08705 35920 ft 461 kts 210°
2026-05-05 01:32 35.97458 34.05230 35901 ft 461 kts 210°
2026-05-05 01:32 35.91512 34.02145 35902 ft 465 kts 204°
2026-05-05 01:33 35.85284 33.99815 35898 ft 468 kts 198°
2026-05-05 01:33 35.78963 33.97987 35898 ft 468 kts 198°
2026-05-05 01:34 35.72659 33.96169 35899 ft 467 kts 198°
2026-05-05 01:34 35.66301 33.94339 35895 ft 467 kts 198°
2026-05-05 01:35 35.60027 33.92535 35897 ft 466 kts 198°
2026-05-05 01:35 35.53678 33.90712 35901 ft 466 kts 198°
2026-05-05 01:36 35.47373 33.88902 35904 ft 467 kts 198°
2026-05-05 01:36 35.41079 33.87101 35909 ft 467 kts 198°
2026-05-05 01:37 35.34722 33.85285 35910 ft 467 kts 198°
2026-05-05 01:37 35.28422 33.83489 35913 ft 466 kts 198°
2026-05-05 01:38 35.22105 33.81690 35914 ft 466 kts 198°
2026-05-05 01:38 35.15819 33.79902 35914 ft 466 kts 198°
2026-05-05 01:39 35.09494 33.78106 35912 ft 466 kts 198°
2026-05-05 01:39 35.03178 33.76317 35910 ft 465 kts 198°
2026-05-05 01:40 34.96921 33.74546 35912 ft 465 kts 198°
2026-05-05 01:40 34.90581 33.72754 35912 ft 466 kts 198°
2026-05-05 01:41 34.84281 33.70977 35913 ft 465 kts 198°
2026-05-05 01:41 34.78008 33.69209 35922 ft 464 kts 198°
2026-05-05 01:42 34.71697 33.67434 35919 ft 463 kts 198°
2026-05-05 01:42 34.65424 33.65675 35918 ft 464 kts 198°
2026-05-05 01:43 34.59164 33.63919 35916 ft 464 kts 198°
2026-05-05 01:43 34.52887 33.62161 35917 ft 463 kts 198°
2026-05-05 01:44 34.46600 33.60405 35914 ft 463 kts 199°
2026-05-05 01:44 34.40331 33.58655 35910 ft 463 kts 199°
2026-05-05 01:45 34.34094 33.56917 35909 ft 462 kts 199°
2026-05-05 01:45 34.27836 33.55176 35912 ft 461 kts 199°
2026-05-05 01:46 34.21557 33.53431 35912 ft 462 kts 199°
2026-05-05 01:46 34.15325 33.51702 35915 ft 461 kts 199°
2026-05-05 01:47 34.09070 33.49969 35915 ft 462 kts 199°
2026-05-05 01:47 34.02806 33.48238 35915 ft 461 kts 199°
2026-05-05 01:48 33.96574 33.46518 35917 ft 459 kts 199°
2026-05-05 01:48 33.90364 33.44806 35922 ft 459 kts 199°
2026-05-05 01:49 33.84160 33.43097 35799 ft 459 kts 199°
2026-05-05 01:49 33.81004 33.42226 36072 ft 459 kts 199°
2026-05-05 01:49 33.77934 33.41384 35994 ft 458 kts 199°
2026-05-05 01:50 33.74837 33.40465 35773 ft 455 kts 202°
2026-05-05 01:50 33.71823 33.39273 35873 ft 453 kts 207°
2026-05-05 01:50 33.66175 33.36097 35928 ft 447 kts 216°
2026-05-05 01:51 33.61055 33.31918 35940 ft 447 kts 224°
2026-05-05 01:51 33.56514 33.26918 35947 ft 444 kts 229°
2026-05-05 01:52 33.52105 33.21736 35950 ft 444 kts 229°
2026-05-05 01:52 33.47703 33.16558 35952 ft 444 kts 229°
2026-05-05 01:53 33.43317 33.11407 35953 ft 444 kts 229°
2026-05-05 01:53 33.38914 33.06241 35955 ft 443 kts 229°
2026-05-05 01:54 33.34517 33.01092 35960 ft 443 kts 229°
2026-05-05 01:54 33.30123 32.95956 35962 ft 443 kts 229°
2026-05-05 01:55 33.25732 32.90830 35966 ft 443 kts 229°
2026-05-05 01:55 33.21333 32.85700 35967 ft 442 kts 229°
2026-05-05 01:56 33.16955 32.80603 35971 ft 442 kts 229°
2026-05-05 01:56 33.12551 32.75487 35976 ft 443 kts 229°
2026-05-05 01:57 33.08143 32.70367 35971 ft 443 kts 229°
2026-05-05 01:57 33.03744 32.65268 35971 ft 442 kts 229°
2026-05-05 01:58 32.99323 32.60153 35980 ft 442 kts 229°
2026-05-05 01:58 32.94941 32.55090 35987 ft 442 kts 229°
2026-05-05 01:59 32.90696 32.50187 35987 ft 441 kts 229°
2026-05-05 01:59 32.86295 32.45116 35989 ft 441 kts 230°
2026-05-05 02:00 32.82109 32.39838 35992 ft 437 kts 234°
2026-05-05 02:00 32.78395 32.34187 35990 ft 435 kts 239°
2026-05-05 02:01 32.74957 32.28303 36004 ft 434 kts 239°
2026-05-05 02:01 32.71508 32.22404 35996 ft 433 kts 239°
2026-05-05 02:02 32.68101 32.16572 36002 ft 434 kts 239°
2026-05-05 02:02 32.64664 32.10697 36005 ft 433 kts 239°
2026-05-05 02:03 32.61234 32.04834 36014 ft 434 kts 240°
2026-05-05 02:03 32.57796 31.98950 36005 ft 434 kts 240°
2026-05-05 02:04 32.54377 31.93102 36008 ft 434 kts 240°
2026-05-05 02:04 32.50946 31.87249 36008 ft 434 kts 240°
2026-05-05 02:05 32.47501 31.81375 36008 ft 433 kts 240°
2026-05-05 02:05 32.44054 31.75512 36013 ft 434 kts 240°
2026-05-05 02:06 32.40627 31.69688 36010 ft 434 kts 240°
2026-05-05 02:06 32.37186 31.63852 36012 ft 433 kts 240°
2026-05-05 02:07 32.33741 31.58019 36023 ft 433 kts 240°
2026-05-05 02:07 32.30299 31.52197 36023 ft 434 kts 240°
2026-05-05 02:08 32.26837 31.46350 35979 ft 434 kts 240°
2026-05-05 02:08 32.25113 31.43441 35742 ft 433 kts 240°
2026-05-05 02:08 32.23388 31.40535 35536 ft 431 kts 241°
2026-05-05 02:09 32.21693 31.37684 35355 ft 427 kts 241°
2026-05-05 02:09 32.19987 31.34813 35164 ft 425 kts 240°
2026-05-05 02:09 32.18294 31.31967 34985 ft 424 kts 240°
2026-05-05 02:09 32.16602 31.29122 34798 ft 423 kts 241°
2026-05-05 02:10 32.14912 31.26281 34528 ft 423 kts 240°
2026-05-05 02:10 32.13245 31.23481 34156 ft 423 kts 241°
2026-05-05 02:10 32.11552 31.20640 33580 ft 424 kts 241°
2026-05-05 02:10 32.09846 31.17778 32922 ft 425 kts 241°
2026-05-05 02:11 32.08058 31.15031 32286 ft 431 kts 234°
2026-05-05 02:11 32.05847 31.12617 31652 ft 440 kts 226°
2026-05-05 02:11 32.03277 31.10624 30991 ft 450 kts 217°
2026-05-05 02:11 32.00397 31.09123 30333 ft 461 kts 208°
2026-05-05 02:12 31.97237 31.08187 29691 ft 473 kts 198°
2026-05-05 02:12 31.90530 31.08177 28427 ft 489 kts 183°
2026-05-05 02:12 31.87135 31.08542 27890 ft 486 kts 183°
2026-05-05 02:13 31.83805 31.08915 27376 ft 483 kts 182°
2026-05-05 02:13 31.80469 31.09287 26857 ft 480 kts 182°
2026-05-05 02:13 31.77134 31.09651 26323 ft 477 kts 182°
2026-05-05 02:13 31.73852 31.10007 25852 ft 472 kts 182°
2026-05-05 02:14 31.70596 31.10358 25403 ft 468 kts 182°
2026-05-05 02:14 31.67371 31.10703 24925 ft 464 kts 182°
2026-05-05 02:14 31.64172 31.11045 24487 ft 460 kts 182°
2026-05-05 02:14 31.60986 31.11386 24062 ft 456 kts 182°
2026-05-05 02:15 31.57862 31.11718 23635 ft 452 kts 182°
2026-05-05 02:15 31.54755 31.12048 23180 ft 450 kts 182°
2026-05-05 02:15 31.51651 31.12477 22759 ft 449 kts 179°
2026-05-05 02:15 31.48542 31.13048 22337 ft 447 kts 178°
2026-05-05 02:16 31.45498 31.13622 21930 ft 443 kts 178°
2026-05-05 02:16 31.42470 31.14193 21535 ft 440 kts 178°
2026-05-05 02:16 31.39458 31.14761 21133 ft 436 kts 178°
2026-05-05 02:16 31.36486 31.15321 20743 ft 433 kts 178°
2026-05-05 02:17 31.33491 31.15880 20326 ft 431 kts 178°
2026-05-05 02:17 31.30542 31.16433 19910 ft 428 kts 178°
2026-05-05 02:17 31.27618 31.16980 19505 ft 426 kts 178°
2026-05-05 02:17 31.24696 31.17527 19087 ft 424 kts 178°
2026-05-05 02:18 31.21795 31.18068 18664 ft 422 kts 178°
2026-05-05 02:18 31.18893 31.18608 18244 ft 420 kts 178°
2026-05-05 02:18 31.16014 31.19141 17820 ft 418 kts 178°
2026-05-05 02:18 31.13172 31.19670 17408 ft 417 kts 178°
2026-05-05 02:19 31.10322 31.20200 16992 ft 415 kts 178°
2026-05-05 02:19 31.07481 31.20733 16610 ft 412 kts 178°
2026-05-05 02:19 31.04652 31.21258 16222 ft 409 kts 178°
2026-05-05 02:19 31.01860 31.21776 15811 ft 408 kts 178°
2026-05-05 02:20 30.99032 31.22300 15405 ft 405 kts 178°
2026-05-05 02:20 30.96257 31.22815 15004 ft 403 kts 178°
2026-05-05 02:20 30.93510 31.23324 14613 ft 401 kts 178°
2026-05-05 02:20 30.90750 31.23835 14209 ft 399 kts 177°
2026-05-05 02:21 30.88039 31.24337 13807 ft 397 kts 177°
2026-05-05 02:21 30.85290 31.24845 13403 ft 394 kts 177°
2026-05-05 02:21 30.82587 31.25344 13005 ft 392 kts 177°
2026-05-05 02:21 30.79893 31.25841 12593 ft 391 kts 176°
2026-05-05 02:22 30.77239 31.26331 12187 ft 389 kts 176°
2026-05-05 02:22 30.74580 31.26823 11776 ft 387 kts 176°
2026-05-05 02:22 30.71898 31.27318 11359 ft 385 kts 176°
2026-05-05 02:22 30.69284 31.27801 10962 ft 383 kts 175°
2026-05-05 02:23 30.66635 31.28290 10623 ft 378 kts 175°
2026-05-05 02:23 30.64099 31.28762 10494 ft 367 kts 175°
2026-05-05 02:23 30.61603 31.29227 10409 ft 355 kts 176°
2026-05-05 02:23 30.59191 31.29675 10326 ft 344 kts 176°
2026-05-05 02:24 30.56874 31.30103 10253 ft 334 kts 176°
2026-05-05 02:24 30.54612 31.30520 10161 ft 324 kts 176°
2026-05-05 02:24 30.52410 31.30925 10137 ft 313 kts 176°
2026-05-05 02:24 30.50300 31.31315 10119 ft 302 kts 176°
2026-05-05 02:25 30.48243 31.31693 10082 ft 293 kts 176°
2026-05-05 02:25 30.46235 31.32060 9840 ft 293 kts 177°
2026-05-05 02:25 30.44214 31.32426 9572 ft 293 kts 176°
2026-05-05 02:25 30.42207 31.32792 9336 ft 291 kts 176°
2026-05-05 02:26 30.40215 31.33157 9102 ft 289 kts 176°
2026-05-05 02:26 30.38223 31.33521 8868 ft 288 kts 176°
2026-05-05 02:26 30.36245 31.33883 8630 ft 286 kts 176°
2026-05-05 02:26 30.34286 31.34243 8398 ft 285 kts 175°
2026-05-05 02:27 30.32325 31.34604 8162 ft 283 kts 175°
2026-05-05 02:27 30.30394 31.34958 7923 ft 282 kts 175°
2026-05-05 02:27 30.28437 31.35314 7688 ft 281 kts 175°
2026-05-05 02:27 30.26523 31.35665 7464 ft 279 kts 175°
2026-05-05 02:28 30.24608 31.36016 7240 ft 278 kts 174°
2026-05-05 02:28 30.22693 31.36367 6987 ft 277 kts 174°
2026-05-05 02:28 30.20791 31.36716 6761 ft 276 kts 174°
2026-05-05 02:28 30.18903 31.37062 6541 ft 274 kts 174°
2026-05-05 02:29 30.16995 31.37411 6314 ft 273 kts 174°
2026-05-05 02:29 30.15127 31.37754 6091 ft 272 kts 174°
2026-05-05 02:29 30.13249 31.38098 5867 ft 271 kts 174°
2026-05-05 02:29 30.11387 31.38439 5647 ft 270 kts 173°
2026-05-05 02:30 30.09542 31.38650 5415 ft 266 kts 186°
2026-05-05 02:30 30.07733 31.38237 5191 ft 260 kts 204°
2026-05-05 02:30 30.06066 31.37480 4973 ft 258 kts 207°
2026-05-05 02:30 30.04406 31.36666 4751 ft 257 kts 207°
2026-05-05 02:31 30.02763 31.35864 4534 ft 257 kts 206°
2026-05-05 02:31 30.01104 31.35067 4318 ft 257 kts 206°
2026-05-05 02:31 29.99457 31.34287 4102 ft 256 kts 206°
2026-05-05 02:31 29.97802 31.33509 3888 ft 256 kts 205°
2026-05-05 02:32 29.96140 31.32728 3667 ft 256 kts 205°
2026-05-05 02:32 29.94506 31.31963 3462 ft 255 kts 205°
2026-05-05 02:32 29.92880 31.31134 3230 ft 253 kts 216°
2026-05-05 02:32 29.91680 31.29721 2983 ft 246 kts 244°
2026-05-05 02:33 29.91149 31.27863 2761 ft 240 kts 269°
2026-05-05 02:33 29.91307 31.26011 2619 ft 231 kts 290°
2026-05-05 02:33 29.92038 31.24432 2543 ft 221 kts 311°
2026-05-05 02:33 29.93194 31.23303 2514 ft 211 kts 332°
2026-05-05 02:34 29.94533 31.22759 2498 ft 202 kts 351°
2026-05-05 02:34 29.95909 31.22771 2488 ft 194 kts
2026-05-05 02:34 29.97163 31.23288 2485 ft 186 kts 27°
2026-05-05 02:34 29.98170 31.24171 2486 ft 182 kts 40°
2026-05-05 02:35 29.99043 31.25232 2500 ft 185 kts 44°
2026-05-05 02:35 29.99889 31.26351 2502 ft 185 kts 45°
2026-05-05 02:35 30.00729 31.27484 2504 ft 185 kts 45°
2026-05-05 02:35 30.01560 31.28608 2503 ft 174 kts 45°
2026-05-05 02:36 30.02331 31.29643 2504 ft 170 kts 45°
2026-05-05 02:36 30.03112 31.30683 2419 ft 170 kts 45°
2026-05-05 02:36 30.03883 31.31710 2202 ft 166 kts 45°
2026-05-05 02:36 30.04615 31.32687 1973 ft 160 kts 45°
2026-05-05 02:37 30.05197 31.33464 1801 ft 155 kts 45°
2026-05-05 02:37 30.05898 31.34398 1597 ft 149 kts 45°
2026-05-05 02:37 30.06557 31.35277 1408 ft 143 kts 45°
2026-05-05 02:37 30.07222 31.36160 1229 ft 144 kts 45°
2026-05-05 02:38 30.07875 31.37031 1058 ft 145 kts 46°
2026-05-05 02:38 30.08535 31.37915 884 ft 145 kts 46°
2026-05-05 02:38 30.09196 31.38797 666 ft 145 kts 46°
2026-05-05 02:38 30.09850 31.39672 455 ft 144 kts 46°
2026-05-05 02:39 30.10489 31.40525 399 ft 132 kts 46°
2026-05-05 02:39 30.11015 31.41209 393 ft 86 kts 49°
2026-05-05 02:39 30.11328 31.41553 393 ft 46 kts 26°
2026-05-05 02:39 30.11544 31.41621 393 ft 20 kts 343°
2026-05-05 02:40 30.11550 31.41522 393 ft 14 kts 227°
2026-05-05 02:40 30.11488 31.41442 393 ft 13 kts 228°
2026-05-05 02:40 30.11425 31.41358 393 ft 14 kts 229°
2026-05-05 02:40 30.11359 31.41272 393 ft 14 kts 229°
2026-05-05 02:41 30.11292 31.41183 393 ft 15 kts 230°
2026-05-05 02:41 30.11221 31.41088 393 ft 15 kts 228°
2026-05-05 02:41 30.11146 31.40990 393 ft 16 kts 229°
2026-05-05 02:41 30.11072 31.40890 393 ft 15 kts 230°
2026-05-05 02:42 30.11065 31.40819 393 ft 8 kts 312°
2026-05-05 02:42 30.11082 31.40753 393 ft 14 kts 251°
2026-05-05 02:42 30.11011 31.40649 393 ft 16 kts 226°
2026-05-05 02:42 30.10932 31.40548 393 ft 15 kts 233°
2026-05-05 02:43 30.10927 31.40441 393 ft 13 kts 287°
2026-05-05 02:43 30.10966 31.40401 393 ft 6 kts 359°
2026-05-05 02:43 30.11005 31.40411 393 ft 3 kts 18°
2026-05-05 02:43 30.11029 31.40419 393 ft 0 kts 15°
2026-05-05 02:44 30.11032 31.40421 393 ft 0 kts 16°